Time,TemperatureF,DewpointF,PressureIn,WindDirection,WindDirectionDegrees,WindSpeedMPH,WindSpeedGustMPH,Humidity,HourlyPrecipIn,Conditions,Clouds,dailyrainin,SoftwareType,DateUTC
2013-01-23 00:00:00,33.5,20.7,30.11,NNE,25,0.0,0.0,59,0.00,,,0.00,Wunderground v.1.15,2013-01-23 06:00:00,
2013-01-23 00:04:00,33.1,20.7,30.12,NNE,25,0.0,0.0,60,0.00,,,0.00,Wunderground v.1.15,2013-01-23 06:04:00,
2013-01-23 00:05:00,33.0,21.0,30.12,NNE,25,0.0,0.0,61,0.00,,,0.00,Wunderground v.1.15,2013-01-23 06:05:00,
2013-01-23 00:08:00,32.8,20.8,30.11,NNE,24,0.0,0.0,61,0.00,,,0.00,Wunderground v.1.15,2013-01-23 06:08:00,
2013-01-23 00:12:00,32.5,20.5,30.11,NNE,25,0.0,0.0,61,0.00,,,0.00,Wunderground v.1.15,2013-01-23 06:12:00,
2013-01-23 00:14:00,32.2,21.4,30.11,NNE,24,0.0,0.0,64,0.00,,,0.00,Wunderground v.1.15,2013-01-23 06:14:00,
2013-01-23 00:17:00,31.9,21.1,30.11,NNE,25,0.0,0.0,64,0.00,,,0.00,Wunderground v.1.15,2013-01-23 06:17:00,
2013-01-23 00:18:00,31.8,21.0,30.11,NNE,25,0.0,0.0,64,0.00,,,0.00,Wunderground v.1.15,2013-01-23 06:18:00,
2013-01-23 00:19:00,31.7,20.9,30.11,NNE,25,0.0,0.0,64,0.00,,,0.00,Wunderground v.1.15,2013-01-23 06:19:00,
2013-01-23 00:22:00,31.5,21.1,30.11,NNE,25,0.0,0.0,65,0.00,,,0.00,Wunderground v.1.15,2013-01-23 06:22:00,
2013-01-23 00:23:00,31.4,21.0,30.11,NNE,25,0.0,0.0,65,0.00,,,0.00,Wunderground v.1.15,2013-01-23 06:23:00,
2013-01-23 00:26:00,31.1,20.7,30.11,NNE,25,0.0,0.0,65,0.00,,,0.00,Wunderground v.1.15,2013-01-23 06:26:00,
2013-01-23 00:30:00,30.8,21.1,30.11,NNE,24,0.0,0.0,67,0.00,,,0.00,Wunderground v.1.15,2013-01-23 06:30:00,
2013-01-23 00:32:00,30.6,20.6,30.11,NNE,25,0.0,0.0,66,0.00,,,0.00,Wunderground v.1.15,2013-01-23 06:32:00,
2013-01-23 00:36:00,30.4,21.4,30.11,NNE,25,0.0,0.0,69,0.00,,,0.00,Wunderground v.1.15,2013-01-23 06:36:00,
2013-01-23 00:37:00,30.3,21.7,30.11,NNE,25,0.0,0.0,70,0.00,,,0.00,Wunderground v.1.15,2013-01-23 06:37:00,
2013-01-23 00:39:00,30.1,21.2,30.11,NNE,24,0.0,0.0,69,0.00,,,0.00,Wunderground v.1.15,2013-01-23 06:39:00,
2013-01-23 00:42:00,29.8,20.9,30.11,NNE,25,0.0,0.0,69,0.00,,,0.00,Wunderground v.1.15,2013-01-23 06:42:00,
2013-01-23 00:43:00,29.8,20.5,30.11,NNE,25,0.0,0.0,68,0.00,,,0.00,Wunderground v.1.15,2013-01-23 06:43:00,
2013-01-23 00:44:00,29.7,20.4,30.11,NNE,25,0.0,0.0,68,0.00,,,0.00,Wunderground v.1.15,2013-01-23 06:44:00,
2013-01-23 00:47:00,29.6,20.7,30.11,NNE,25,0.0,0.0,69,0.00,,,0.00,Wunderground v.1.15,2013-01-23 06:47:00,
2013-01-23 00:49:00,29.5,20.6,30.11,NNE,25,0.0,0.0,69,0.00,,,0.00,Wunderground v.1.15,2013-01-23 06:49:00,
2013-01-23 00:51:00,29.4,21.2,30.11,NNE,25,0.0,0.0,71,0.00,,,0.00,Wunderground v.1.15,2013-01-23 06:51:00,
2013-01-23 00:53:00,29.3,20.7,30.11,NNE,25,0.0,0.0,70,0.00,,,0.00,Wunderground v.1.15,2013-01-23 06:53:00,
2013-01-23 00:56:00,29.2,20.6,30.12,NNE,24,0.0,0.0,70,0.00,,,0.00,Wunderground v.1.15,2013-01-23 06:56:00,
2013-01-23 00:57:00,29.1,20.5,30.11,NNE,24,0.0,0.0,70,0.00,,,0.00,Wunderground v.1.15,2013-01-23 06:57:00,
2013-01-23 00:59:00,29.1,20.5,30.11,NNE,25,0.0,0.0,70,0.00,,,0.00,Wunderground v.1.15,2013-01-23 06:59:00,
2013-01-23 01:02:00,29.0,20.8,30.11,NNE,25,0.0,0.0,71,0.00,,,0.00,Wunderground v.1.15,2013-01-23 07:02:00,
2013-01-23 01:04:00,28.9,20.7,30.11,NNE,24,0.0,0.0,71,0.00,,,0.00,Wunderground v.1.15,2013-01-23 07:04:00,
2013-01-23 01:05:00,28.8,20.6,30.11,NNE,24,0.0,0.0,71,0.00,,,0.00,Wunderground v.1.15,2013-01-23 07:05:00,
2013-01-23 01:06:00,28.8,20.6,30.11,NNE,25,0.0,0.0,71,0.00,,,0.00,Wunderground v.1.15,2013-01-23 07:06:00,
2013-01-23 01:09:00,28.7,20.8,30.11,NNE,25,0.0,0.0,72,0.00,,,0.00,Wunderground v.1.15,2013-01-23 07:09:00,
2013-01-23 01:11:00,28.6,20.7,30.11,NNE,25,0.0,0.0,72,0.00,,,0.00,Wunderground v.1.15,2013-01-23 07:11:00,
2013-01-23 01:13:00,28.5,20.3,30.11,NNE,25,0.0,0.0,71,0.00,,,0.00,Wunderground v.1.15,2013-01-23 07:13:00,
2013-01-23 01:15:00,28.5,20.6,30.11,NNE,24,0.0,0.0,72,0.00,,,0.00,Wunderground v.1.15,2013-01-23 07:15:00,
2013-01-23 01:18:00,28.4,20.5,30.11,NNE,25,0.0,0.0,72,0.00,,,0.00,Wunderground v.1.15,2013-01-23 07:18:00,
2013-01-23 01:19:00,28.4,20.5,30.11,NNE,25,0.0,0.0,72,0.00,,,0.00,Wunderground v.1.15,2013-01-23 07:19:00,
2013-01-23 01:21:00,28.3,20.7,30.11,NNE,25,0.0,0.0,73,0.00,,,0.00,Wunderground v.1.15,2013-01-23 07:21:00,
2013-01-23 01:22:00,28.3,20.7,30.11,NNE,25,0.0,0.0,73,0.00,,,0.00,Wunderground v.1.15,2013-01-23 07:22:00,
2013-01-23 01:25:00,28.2,20.7,30.11,NNE,24,0.0,0.0,73,0.00,,,0.00,Wunderground v.1.15,2013-01-23 07:25:00,
2013-01-23 01:28:00,28.1,20.9,30.11,NNE,25,0.0,0.0,74,0.00,,,0.00,Wunderground v.1.15,2013-01-23 07:28:00,
2013-01-23 01:33:00,28.1,21.5,30.11,NNE,25,0.0,0.0,76,0.00,,,0.00,Wunderground v.1.15,2013-01-23 07:33:00,
2013-01-23 01:34:00,28.1,21.5,30.11,NNE,25,0.0,0.0,76,0.00,,,0.00,Wunderground v.1.15,2013-01-23 07:34:00,
2013-01-23 01:36:00,28.0,21.1,30.11,NNE,25,0.0,0.0,75,0.00,,,0.00,Wunderground v.1.15,2013-01-23 07:36:00,
2013-01-23 01:39:00,27.9,21.0,30.11,NNE,25,0.0,0.0,75,0.00,,,0.00,Wunderground v.1.15,2013-01-23 07:39:00,
2013-01-23 01:41:00,27.9,21.0,30.11,NNE,25,0.0,0.0,75,0.00,,,0.00,Wunderground v.1.15,2013-01-23 07:41:00,
2013-01-23 01:44:00,27.8,20.9,30.11,NNE,25,0.0,0.0,75,0.00,,,0.00,Wunderground v.1.15,2013-01-23 07:44:00,
2013-01-23 01:45:00,27.8,21.2,30.11,NNE,24,0.0,0.0,76,0.00,,,0.00,Wunderground v.1.15,2013-01-23 07:45:00,
2013-01-23 01:46:00,27.8,21.2,30.11,NNE,25,0.0,0.0,76,0.00,,,0.00,Wunderground v.1.15,2013-01-23 07:46:00,
2013-01-23 01:48:00,27.8,21.2,30.11,NNE,25,0.0,0.0,76,0.00,,,0.00,Wunderground v.1.15,2013-01-23 07:48:00,
2013-01-23 01:51:00,27.7,21.1,30.11,NNE,25,0.0,0.0,76,0.00,,,0.00,Wunderground v.1.15,2013-01-23 07:51:00,
2013-01-23 01:53:00,27.7,21.4,30.11,NNE,25,0.0,0.0,77,0.00,,,0.00,Wunderground v.1.15,2013-01-23 07:53:00,
2013-01-23 01:54:00,27.6,21.3,30.11,NNE,25,0.0,0.0,77,0.00,,,0.00,Wunderground v.1.15,2013-01-23 07:54:00,
2013-01-23 01:59:00,27.5,21.2,30.11,NNE,24,0.0,0.0,77,0.00,,,0.00,Wunderground v.1.15,2013-01-23 07:59:00,
2013-01-23 02:00:00,27.4,21.1,30.11,NNE,25,0.0,0.0,77,0.00,,,0.00,Wunderground v.1.15,2013-01-23 08:00:00,
2013-01-23 02:03:00,27.4,21.1,30.11,NNE,25,0.0,0.0,77,0.00,,,0.00,Wunderground v.1.15,2013-01-23 08:03:00,
2013-01-23 02:05:00,27.3,21.0,30.11,NNE,24,0.0,0.0,77,0.00,,,0.00,Wunderground v.1.15,2013-01-23 08:05:00,
2013-01-23 02:06:00,27.3,21.0,30.11,NNE,25,0.0,0.0,77,0.00,,,0.00,Wunderground v.1.15,2013-01-23 08:06:00,
2013-01-23 02:08:00,27.3,21.3,30.11,NNE,25,0.0,0.0,78,0.00,,,0.00,Wunderground v.1.15,2013-01-23 08:08:00,
2013-01-23 02:10:00,27.2,21.2,30.11,NNE,25,0.0,0.0,78,0.00,,,0.00,Wunderground v.1.15,2013-01-23 08:10:00,
2013-01-23 02:12:00,27.1,21.5,30.11,NNE,25,0.0,0.0,79,0.00,,,0.00,Wunderground v.1.15,2013-01-23 08:12:00,
2013-01-23 02:13:00,27.1,21.5,30.11,NNE,25,0.0,0.0,79,0.00,,,0.00,Wunderground v.1.15,2013-01-23 08:13:00,
2013-01-23 02:15:00,27.0,21.4,30.12,NNE,25,0.0,0.0,79,0.00,,,0.00,Wunderground v.1.15,2013-01-23 08:15:00,
2013-01-23 02:17:00,27.0,21.4,30.12,NNE,25,0.0,0.0,79,0.00,,,0.00,Wunderground v.1.15,2013-01-23 08:17:00,
2013-01-23 02:18:00,27.0,21.4,30.12,NNE,25,0.0,0.0,79,0.00,,,0.00,Wunderground v.1.15,2013-01-23 08:18:00,
2013-01-23 02:19:00,27.0,21.7,30.12,NNE,25,0.0,0.0,80,0.00,,,0.00,Wunderground v.1.15,2013-01-23 08:19:00,
2013-01-23 02:20:00,27.0,21.7,30.12,NNE,25,0.0,0.0,80,0.00,,,0.00,Wunderground v.1.15,2013-01-23 08:20:00,
2013-01-23 02:22:00,27.0,21.7,30.12,NNE,25,0.0,0.0,80,0.00,,,0.00,Wunderground v.1.15,2013-01-23 08:22:00,
2013-01-23 02:23:00,27.0,21.7,30.12,NNE,25,0.0,0.0,80,0.00,,,0.00,Wunderground v.1.15,2013-01-23 08:23:00,
2013-01-23 02:25:00,27.0,21.7,30.12,NNE,25,0.0,0.0,80,0.00,,,0.00,Wunderground v.1.15,2013-01-23 08:25:00,
2013-01-23 02:26:00,26.9,21.6,30.12,NNE,25,0.0,0.0,80,0.00,,,0.00,Wunderground v.1.15,2013-01-23 08:26:00,
2013-01-23 02:28:00,26.9,21.6,30.12,NNE,25,0.0,0.0,80,0.00,,,0.00,Wunderground v.1.15,2013-01-23 08:28:00,
2013-01-23 02:29:00,26.9,21.6,30.12,NNE,25,0.0,0.0,80,0.00,,,0.00,Wunderground v.1.15,2013-01-23 08:29:00,
2013-01-23 02:30:00,26.9,21.6,30.12,NNE,25,0.0,0.0,80,0.00,,,0.00,Wunderground v.1.15,2013-01-23 08:30:00,
2013-01-23 02:32:00,26.9,21.6,30.12,NNE,25,0.0,0.0,80,0.00,,,0.00,Wunderground v.1.15,2013-01-23 08:32:00,
2013-01-23 02:33:00,26.9,21.6,30.12,NNE,25,0.0,0.0,80,0.00,,,0.00,Wunderground v.1.15,2013-01-23 08:33:00,
2013-01-23 02:34:00,26.9,21.6,30.12,NNE,25,0.0,0.0,80,0.00,,,0.00,Wunderground v.1.15,2013-01-23 08:34:00,
2013-01-23 02:35:00,26.8,21.5,30.12,NNE,25,0.0,0.0,80,0.00,,,0.00,Wunderground v.1.15,2013-01-23 08:35:00,
2013-01-23 02:37:00,26.8,21.5,30.12,NNE,25,0.0,0.0,80,0.00,,,0.00,Wunderground v.1.15,2013-01-23 08:37:00,
2013-01-23 02:38:00,26.8,21.5,30.11,NNE,25,0.0,0.0,80,0.00,,,0.00,Wunderground v.1.15,2013-01-23 08:38:00,
2013-01-23 02:40:00,26.8,21.5,30.12,NNE,25,0.0,0.0,80,0.00,,,0.00,Wunderground v.1.15,2013-01-23 08:40:00,
2013-01-23 02:42:00,26.7,21.4,30.11,NNE,25,0.0,0.0,80,0.00,,,0.00,Wunderground v.1.15,2013-01-23 08:42:00,
2013-01-23 02:43:00,26.7,21.4,30.11,NNE,25,0.0,0.0,80,0.00,,,0.00,Wunderground v.1.15,2013-01-23 08:43:00,
2013-01-23 02:45:00,26.7,21.4,30.11,NNE,25,0.0,0.0,80,0.00,,,0.00,Wunderground v.1.15,2013-01-23 08:45:00,
2013-01-23 02:46:00,26.7,21.4,30.11,NNE,25,0.0,0.0,80,0.00,,,0.00,Wunderground v.1.15,2013-01-23 08:46:00,
2013-01-23 02:47:00,26.7,21.4,30.11,NNE,24,0.0,0.0,80,0.00,,,0.00,Wunderground v.1.15,2013-01-23 08:47:00,
2013-01-23 02:48:00,26.6,21.3,30.11,NNE,25,0.0,0.0,80,0.00,,,0.00,Wunderground v.1.15,2013-01-23 08:48:00,
2013-01-23 02:50:00,26.6,21.3,30.11,NNE,24,0.0,0.0,80,0.00,,,0.00,Wunderground v.1.15,2013-01-23 08:50:00,
2013-01-23 02:52:00,26.6,21.3,30.11,NNE,25,0.0,0.0,80,0.00,,,0.00,Wunderground v.1.15,2013-01-23 08:52:00,
2013-01-23 02:54:00,26.5,21.5,30.11,NNE,25,0.0,0.0,81,0.00,,,0.00,Wunderground v.1.15,2013-01-23 08:54:00,
2013-01-23 02:55:00,26.5,21.5,30.11,NNE,25,0.0,0.0,81,0.00,,,0.00,Wunderground v.1.15,2013-01-23 08:55:00,
2013-01-23 02:57:00,26.5,21.5,30.11,NNE,25,0.0,0.0,81,0.00,,,0.00,Wunderground v.1.15,2013-01-23 08:57:00,
2013-01-23 02:58:00,26.5,21.7,30.11,NNE,25,0.0,0.0,82,0.00,,,0.00,Wunderground v.1.15,2013-01-23 08:58:00,
2013-01-23 02:59:00,26.5,21.7,30.11,NNE,24,0.0,0.0,82,0.00,,,0.00,Wunderground v.1.15,2013-01-23 08:59:00,
2013-01-23 03:02:00,26.5,21.7,30.10,NNE,25,0.0,0.0,82,0.00,,,0.00,Wunderground v.1.15,2013-01-23 09:02:00,
2013-01-23 03:03:00,26.4,21.7,30.10,NNE,25,0.0,0.0,82,0.00,,,0.00,Wunderground v.1.15,2013-01-23 09:03:00,
2013-01-23 03:04:00,26.4,21.7,30.11,NNE,24,0.0,0.0,82,0.00,,,0.00,Wunderground v.1.15,2013-01-23 09:04:00,
2013-01-23 03:08:00,26.4,21.7,30.11,NNE,25,0.0,0.0,82,0.00,,,0.00,Wunderground v.1.15,2013-01-23 09:08:00,
2013-01-23 03:09:00,26.4,21.7,30.10,NNE,25,0.0,0.0,82,0.00,,,0.00,Wunderground v.1.15,2013-01-23 09:09:00,
2013-01-23 03:13:00,26.3,21.6,30.11,NNE,25,0.0,0.0,82,0.00,,,0.00,Wunderground v.1.15,2013-01-23 09:13:00,
2013-01-23 03:14:00,26.3,21.6,30.11,NNE,25,0.0,0.0,82,0.00,,,0.00,Wunderground v.1.15,2013-01-23 09:14:00,
2013-01-23 03:18:00,26.3,21.6,30.11,NNE,25,0.0,0.0,82,0.00,,,0.00,Wunderground v.1.15,2013-01-23 09:18:00,
2013-01-23 03:19:00,26.3,21.6,30.11,NNE,24,0.0,0.0,82,0.00,,,0.00,Wunderground v.1.15,2013-01-23 09:19:00,
2013-01-23 03:20:00,26.3,21.6,30.11,NNE,25,0.0,0.0,82,0.00,,,0.00,Wunderground v.1.15,2013-01-23 09:20:00,
2013-01-23 03:23:00,26.2,21.7,30.11,NNE,25,0.0,0.0,83,0.00,,,0.00,Wunderground v.1.15,2013-01-23 09:23:00,
2013-01-23 03:24:00,26.2,21.7,30.11,NNE,25,0.0,0.0,83,0.00,,,0.00,Wunderground v.1.15,2013-01-23 09:24:00,
2013-01-23 03:25:00,26.2,21.7,30.11,NNE,25,0.0,0.0,83,0.00,,,0.00,Wunderground v.1.15,2013-01-23 09:25:00,
2013-01-23 03:28:00,26.2,21.7,30.11,NNE,25,0.0,0.0,83,0.00,,,0.00,Wunderground v.1.15,2013-01-23 09:28:00,
2013-01-23 03:29:00,26.2,21.7,30.11,NNE,25,0.0,0.0,83,0.00,,,0.00,Wunderground v.1.15,2013-01-23 09:29:00,
2013-01-23 03:30:00,26.2,21.7,30.11,NNE,24,0.0,0.0,83,0.00,,,0.00,Wunderground v.1.15,2013-01-23 09:30:00,
2013-01-23 03:35:00,26.1,21.6,30.10,NNE,25,0.0,0.0,83,0.00,,,0.00,Wunderground v.1.15,2013-01-23 09:35:00,
2013-01-23 03:40:00,26.1,21.4,30.10,NNE,25,0.0,0.0,82,0.00,,,0.00,Wunderground v.1.15,2013-01-23 09:40:00,
2013-01-23 03:45:00,26.0,21.5,30.10,NNE,25,0.0,0.0,83,0.00,,,0.00,Wunderground v.1.15,2013-01-23 09:45:00,
2013-01-23 03:50:00,26.0,21.5,30.10,NNE,24,0.0,0.0,83,0.00,,,0.00,Wunderground v.1.15,2013-01-23 09:50:00,
2013-01-23 03:51:00,25.9,21.4,30.10,NNE,25,0.0,0.0,83,0.00,,,0.00,Wunderground v.1.15,2013-01-23 09:51:00,
2013-01-23 03:56:00,25.9,21.4,30.10,NNE,25,0.0,0.0,83,0.00,,,0.00,Wunderground v.1.15,2013-01-23 09:56:00,
2013-01-23 03:57:00,25.9,21.4,30.10,NNE,24,0.0,0.0,83,0.00,,,0.00,Wunderground v.1.15,2013-01-23 09:57:00,
2013-01-23 04:01:00,25.8,21.3,30.10,NNE,25,0.0,0.0,83,0.00,,,0.00,Wunderground v.1.15,2013-01-23 10:01:00,
2013-01-23 04:03:00,25.8,21.6,30.10,NNE,24,0.0,0.0,84,0.00,,,0.00,Wunderground v.1.15,2013-01-23 10:03:00,
2013-01-23 04:06:00,25.8,21.6,30.10,NNE,25,0.0,0.0,84,0.00,,,0.00,Wunderground v.1.15,2013-01-23 10:06:00,
2013-01-23 04:07:00,25.8,21.6,30.10,NNE,25,0.0,0.0,84,0.00,,,0.00,Wunderground v.1.15,2013-01-23 10:07:00,
2013-01-23 04:09:00,25.7,21.5,30.10,NNE,24,0.0,0.0,84,0.00,,,0.00,Wunderground v.1.15,2013-01-23 10:09:00,
2013-01-23 04:11:00,25.7,21.5,30.10,NNE,25,0.0,0.0,84,0.00,,,0.00,Wunderground v.1.15,2013-01-23 10:11:00,
2013-01-23 04:12:00,25.7,21.5,30.10,NNE,25,0.0,0.0,84,0.00,,,0.00,Wunderground v.1.15,2013-01-23 10:12:00,
2013-01-23 04:14:00,25.7,21.5,30.10,NNE,25,0.0,0.0,84,0.00,,,0.00,Wunderground v.1.15,2013-01-23 10:14:00,
2013-01-23 04:17:00,25.7,21.5,30.10,NNE,25,0.0,0.0,84,0.00,,,0.00,Wunderground v.1.15,2013-01-23 10:17:00,
2013-01-23 04:18:00,25.7,21.5,30.10,NNE,25,0.0,0.0,84,0.00,,,0.00,Wunderground v.1.15,2013-01-23 10:18:00,
2013-01-23 04:19:00,25.6,21.4,30.10,NNE,25,0.0,0.0,84,0.00,,,0.00,Wunderground v.1.15,2013-01-23 10:19:00,
2013-01-23 04:22:00,25.6,21.4,30.10,NNE,24,0.0,0.0,84,0.00,,,0.00,Wunderground v.1.15,2013-01-23 10:22:00,
2013-01-23 04:23:00,25.6,21.7,30.10,NNE,24,0.0,0.0,85,0.00,,,0.00,Wunderground v.1.15,2013-01-23 10:23:00,
2013-01-23 04:25:00,25.5,21.6,30.10,NNE,25,0.0,0.0,85,0.00,,,0.00,Wunderground v.1.15,2013-01-23 10:25:00,
2013-01-23 04:28:00,25.5,21.6,30.10,NNE,25,0.0,0.0,85,0.00,,,0.00,Wunderground v.1.15,2013-01-23 10:28:00,
2013-01-23 04:30:00,25.5,21.6,30.10,NNE,25,0.0,0.0,85,0.00,,,0.00,Wunderground v.1.15,2013-01-23 10:30:00,
2013-01-23 04:33:00,25.4,21.5,30.10,NNE,25,0.0,0.0,85,0.00,,,0.00,Wunderground v.1.15,2013-01-23 10:33:00,
2013-01-23 04:35:00,25.4,21.5,30.10,NNE,25,0.0,0.0,85,0.00,,,0.00,Wunderground v.1.15,2013-01-23 10:35:00,
2013-01-23 04:38:00,25.4,21.5,30.10,NNE,24,0.0,0.0,85,0.00,,,0.00,Wunderground v.1.15,2013-01-23 10:38:00,
2013-01-23 04:39:00,25.4,21.5,30.10,NNE,25,0.0,0.0,85,0.00,,,0.00,Wunderground v.1.15,2013-01-23 10:39:00,
2013-01-23 04:40:00,25.4,21.8,30.10,NNE,24,0.0,0.0,86,0.00,,,0.00,Wunderground v.1.15,2013-01-23 10:40:00,
2013-01-23 04:43:00,25.4,21.8,30.09,NNE,25,0.0,0.0,86,0.00,,,0.00,Wunderground v.1.15,2013-01-23 10:43:00,
2013-01-23 04:44:00,25.4,21.8,30.09,NNE,25,0.0,0.0,86,0.00,,,0.00,Wunderground v.1.15,2013-01-23 10:44:00,
2013-01-23 04:45:00,25.4,21.8,30.09,NNE,25,0.0,0.0,86,0.00,,,0.00,Wunderground v.1.15,2013-01-23 10:45:00,
2013-01-23 04:48:00,25.5,21.9,30.09,NNE,25,0.0,0.0,86,0.00,,,0.00,Wunderground v.1.15,2013-01-23 10:48:00,
2013-01-23 04:49:00,25.4,21.8,30.10,NNE,25,0.0,0.0,86,0.00,,,0.00,Wunderground v.1.15,2013-01-23 10:49:00,
2013-01-23 04:50:00,25.4,21.8,30.09,NNE,25,0.0,0.0,86,0.00,,,0.00,Wunderground v.1.15,2013-01-23 10:50:00,
2013-01-23 04:53:00,25.4,21.8,30.09,NNE,25,0.0,0.0,86,0.00,,,0.00,Wunderground v.1.15,2013-01-23 10:53:00,
2013-01-23 04:54:00,25.4,21.8,30.09,NNE,25,0.0,0.0,86,0.00,,,0.00,Wunderground v.1.15,2013-01-23 10:54:00,
2013-01-23 04:55:00,25.4,21.8,30.09,NNE,25,0.0,0.0,86,0.00,,,0.00,Wunderground v.1.15,2013-01-23 10:55:00,
2013-01-23 04:57:00,25.4,21.8,30.09,NNE,25,0.0,0.0,86,0.00,,,0.00,Wunderground v.1.15,2013-01-23 10:57:00,
2013-01-23 04:59:00,25.4,21.8,30.09,NNE,25,0.0,0.0,86,0.00,,,0.00,Wunderground v.1.15,2013-01-23 10:59:00,
2013-01-23 05:00:00,25.4,21.8,30.10,NNE,25,0.0,0.0,86,0.00,,,0.00,Wunderground v.1.15,2013-01-23 11:00:00,
2013-01-23 05:02:00,25.4,21.8,30.10,NNE,24,0.0,0.0,86,0.00,,,0.00,Wunderground v.1.15,2013-01-23 11:02:00,
2013-01-23 05:04:00,25.4,21.8,30.10,NNE,25,0.0,0.0,86,0.00,,,0.00,Wunderground v.1.15,2013-01-23 11:04:00,
2013-01-23 05:05:00,25.4,21.8,30.10,NNE,25,0.0,0.0,86,0.00,,,0.00,Wunderground v.1.15,2013-01-23 11:05:00,
2013-01-23 05:08:00,25.4,22.1,30.09,NNE,25,0.0,0.0,87,0.00,,,0.00,Wunderground v.1.15,2013-01-23 11:08:00,
2013-01-23 05:10:00,25.4,22.1,30.09,NNE,25,0.0,0.0,87,0.00,,,0.00,Wunderground v.1.15,2013-01-23 11:10:00,
2013-01-23 05:11:00,25.4,22.1,30.09,NNE,25,0.0,0.0,87,0.00,,,0.00,Wunderground v.1.15,2013-01-23 11:11:00,
2013-01-23 05:12:00,25.4,22.1,30.10,NNE,24,0.0,0.0,87,0.00,,,0.00,Wunderground v.1.15,2013-01-23 11:12:00,
2013-01-23 05:14:00,25.4,22.1,30.10,NNE,25,0.0,0.0,87,0.00,,,0.00,Wunderground v.1.15,2013-01-23 11:14:00,
2013-01-23 05:15:00,25.4,22.1,30.10,NNE,25,0.0,0.0,87,0.00,,,0.00,Wunderground v.1.15,2013-01-23 11:15:00,
2013-01-23 05:17:00,25.4,22.1,30.10,NNE,25,0.0,0.0,87,0.00,,,0.00,Wunderground v.1.15,2013-01-23 11:17:00,
2013-01-23 05:18:00,25.4,22.1,30.10,NNE,25,0.0,0.0,87,0.00,,,0.00,Wunderground v.1.15,2013-01-23 11:18:00,
2013-01-23 05:19:00,25.4,22.1,30.10,NNE,25,0.0,0.0,87,0.00,,,0.00,Wunderground v.1.15,2013-01-23 11:19:00,
2013-01-23 05:20:00,25.3,22.0,30.10,NNE,24,0.0,0.0,87,0.00,,,0.00,Wunderground v.1.15,2013-01-23 11:20:00,
2013-01-23 05:22:00,25.4,22.1,30.10,NNE,25,0.0,0.0,87,0.00,,,0.00,Wunderground v.1.15,2013-01-23 11:22:00,
2013-01-23 05:23:00,25.3,22.0,30.10,NNE,25,0.0,0.0,87,0.00,,,0.00,Wunderground v.1.15,2013-01-23 11:23:00,
2013-01-23 05:25:00,25.3,22.0,30.10,NNE,25,0.0,0.0,87,0.00,,,0.00,Wunderground v.1.15,2013-01-23 11:25:00,
2013-01-23 05:28:00,25.3,22.0,30.10,NNE,24,0.0,0.0,87,0.00,,,0.00,Wunderground v.1.15,2013-01-23 11:28:00,
2013-01-23 05:30:00,25.3,22.0,30.10,NNE,25,0.0,0.0,87,0.00,,,0.00,Wunderground v.1.15,2013-01-23 11:30:00,
2013-01-23 05:31:00,25.3,22.2,30.10,NNE,25,0.0,0.0,88,0.00,,,0.00,Wunderground v.1.15,2013-01-23 11:31:00,
2013-01-23 05:33:00,25.4,22.3,30.10,NNE,25,0.0,0.0,88,0.00,,,0.00,Wunderground v.1.15,2013-01-23 11:33:00,
2013-01-23 05:35:00,25.4,22.3,30.10,NNE,25,0.0,0.0,88,0.00,,,0.00,Wunderground v.1.15,2013-01-23 11:35:00,
2013-01-23 05:36:00,25.4,22.3,30.10,NNE,24,0.0,0.0,88,0.00,,,0.00,Wunderground v.1.15,2013-01-23 11:36:00,
2013-01-23 05:38:00,25.4,22.3,30.10,NNE,25,0.0,0.0,88,0.00,,,0.00,Wunderground v.1.15,2013-01-23 11:38:00,
2013-01-23 05:39:00,25.4,22.3,30.10,NNE,25,0.0,0.0,88,0.00,,,0.00,Wunderground v.1.15,2013-01-23 11:39:00,
2013-01-23 05:40:00,25.4,22.3,30.10,NNE,25,0.0,0.0,88,0.00,,,0.00,Wunderground v.1.15,2013-01-23 11:40:00,
2013-01-23 05:42:00,25.4,22.3,30.10,NNE,25,0.0,0.0,88,0.00,,,0.00,Wunderground v.1.15,2013-01-23 11:42:00,
2013-01-23 05:43:00,25.4,22.3,30.10,NNE,25,0.0,0.0,88,0.00,,,0.00,Wunderground v.1.15,2013-01-23 11:43:00,
2013-01-23 05:45:00,25.4,22.3,30.10,NNE,25,0.0,0.0,88,0.00,,,0.00,Wunderground v.1.15,2013-01-23 11:45:00,
2013-01-23 05:46:00,25.4,22.3,30.10,NNE,25,0.0,0.0,88,0.00,,,0.00,Wunderground v.1.15,2013-01-23 11:46:00,
2013-01-23 05:47:00,25.4,22.3,30.10,NNE,25,0.0,0.0,88,0.00,,,0.00,Wunderground v.1.15,2013-01-23 11:47:00,
2013-01-23 05:49:00,25.3,22.2,30.10,NNE,25,0.0,0.0,88,0.00,,,0.00,Wunderground v.1.15,2013-01-23 11:49:00,
2013-01-23 05:50:00,25.4,22.3,30.10,NNE,24,0.0,0.0,88,0.00,,,0.00,Wunderground v.1.15,2013-01-23 11:50:00,
2013-01-23 05:51:00,25.4,22.3,30.10,NNE,25,0.0,0.0,88,0.00,,,0.00,Wunderground v.1.15,2013-01-23 11:51:00,
2013-01-23 05:52:00,25.4,22.3,30.10,NNE,25,0.0,0.0,88,0.00,,,0.00,Wunderground v.1.15,2013-01-23 11:52:00,
2013-01-23 05:54:00,25.4,22.3,30.10,NNE,24,0.0,0.0,88,0.00,,,0.00,Wunderground v.1.15,2013-01-23 11:54:00,
2013-01-23 05:55:00,25.4,22.3,30.10,NNE,25,0.0,0.0,88,0.00,,,0.00,Wunderground v.1.15,2013-01-23 11:55:00,
2013-01-23 05:57:00,25.3,22.2,30.10,NNE,25,0.0,0.0,88,0.00,,,0.00,Wunderground v.1.15,2013-01-23 11:57:00,
2013-01-23 05:59:00,25.3,22.2,30.10,NNE,25,0.0,0.0,88,0.00,,,0.00,Wunderground v.1.15,2013-01-23 11:59:00,
2013-01-23 06:00:00,25.3,22.2,30.10,NNE,24,0.0,0.0,88,0.00,,,0.00,Wunderground v.1.15,2013-01-23 12:00:00,
2013-01-23 06:02:00,25.3,22.2,30.10,NNE,25,0.0,0.0,88,0.00,,,0.00,Wunderground v.1.15,2013-01-23 12:02:00,
2013-01-23 06:03:00,25.4,22.3,30.10,NNE,25,0.0,0.0,88,0.00,,,0.00,Wunderground v.1.15,2013-01-23 12:03:00,
2013-01-23 06:04:00,25.3,22.2,30.10,NNE,25,0.0,0.0,88,0.00,,,0.00,Wunderground v.1.15,2013-01-23 12:04:00,
2013-01-23 06:05:00,25.4,22.3,30.10,NNE,25,0.0,0.0,88,0.00,,,0.00,Wunderground v.1.15,2013-01-23 12:05:00,
2013-01-23 06:07:00,25.3,22.2,30.10,NNE,25,0.0,0.0,88,0.00,,,0.00,Wunderground v.1.15,2013-01-23 12:07:00,
2013-01-23 06:08:00,25.3,22.2,30.10,NNE,25,0.0,0.0,88,0.00,,,0.00,Wunderground v.1.15,2013-01-23 12:08:00,
2013-01-23 06:09:00,25.3,22.2,30.10,NNE,24,0.0,0.0,88,0.00,,,0.00,Wunderground v.1.15,2013-01-23 12:09:00,
2013-01-23 06:10:00,25.3,22.2,30.10,NNE,24,0.0,0.0,88,0.00,,,0.00,Wunderground v.1.15,2013-01-23 12:10:00,
2013-01-23 06:13:00,25.2,22.1,30.10,NNE,25,0.0,0.0,88,0.00,,,0.00,Wunderground v.1.15,2013-01-23 12:13:00,
2013-01-23 06:14:00,25.2,22.1,30.10,NNE,25,0.0,0.0,88,0.00,,,0.00,Wunderground v.1.15,2013-01-23 12:14:00,
2013-01-23 06:15:00,25.2,22.1,30.10,NNE,25,0.0,0.0,88,0.00,,,0.00,Wunderground v.1.15,2013-01-23 12:15:00,
2013-01-23 06:18:00,25.2,22.1,30.10,NNE,24,0.0,0.0,88,0.00,,,0.00,Wunderground v.1.15,2013-01-23 12:18:00,
2013-01-23 06:20:00,25.2,22.1,30.10,NNE,25,0.0,0.0,88,0.00,,,0.00,Wunderground v.1.15,2013-01-23 12:20:00,
2013-01-23 06:21:00,25.2,22.1,30.10,NNE,25,0.0,0.0,88,0.00,,,0.00,Wunderground v.1.15,2013-01-23 12:21:00,
2013-01-23 06:24:00,25.2,22.1,30.10,NNE,24,0.0,0.0,88,0.00,,,0.00,Wunderground v.1.15,2013-01-23 12:24:00,
2013-01-23 06:25:00,25.2,22.1,30.10,NNE,25,0.0,0.0,88,0.00,,,0.00,Wunderground v.1.15,2013-01-23 12:25:00,
2013-01-23 06:27:00,25.2,22.1,30.10,NNE,25,0.0,0.0,88,0.00,,,0.00,Wunderground v.1.15,2013-01-23 12:27:00,
2013-01-23 06:29:00,25.2,22.1,30.10,NNE,25,0.0,0.0,88,0.00,,,0.00,Wunderground v.1.15,2013-01-23 12:29:00,
2013-01-23 06:30:00,25.2,22.1,30.10,NNE,25,0.0,0.0,88,0.00,,,0.00,Wunderground v.1.15,2013-01-23 12:30:00,
2013-01-23 06:32:00,25.2,22.1,30.10,NNE,25,0.0,0.0,88,0.00,,,0.00,Wunderground v.1.15,2013-01-23 12:32:00,
2013-01-23 06:34:00,25.3,22.2,30.10,NNE,25,0.0,0.0,88,0.00,,,0.00,Wunderground v.1.15,2013-01-23 12:34:00,
2013-01-23 06:35:00,25.3,22.2,30.10,NNE,25,0.0,0.0,88,0.00,,,0.00,Wunderground v.1.15,2013-01-23 12:35:00,
2013-01-23 06:36:00,25.2,22.1,30.10,NNE,25,0.0,0.0,88,0.00,,,0.00,Wunderground v.1.15,2013-01-23 12:36:00,
2013-01-23 06:38:00,25.3,22.2,30.10,NNE,25,0.0,0.0,88,0.00,,,0.00,Wunderground v.1.15,2013-01-23 12:38:00,
2013-01-23 06:39:00,25.2,22.1,30.10,NNE,25,0.0,0.0,88,0.00,,,0.00,Wunderground v.1.15,2013-01-23 12:39:00,
2013-01-23 06:40:00,25.2,22.1,30.10,NNE,25,0.0,0.0,88,0.00,,,0.00,Wunderground v.1.15,2013-01-23 12:40:00,
2013-01-23 06:41:00,25.2,22.1,30.10,NNE,25,0.0,0.0,88,0.00,,,0.00,Wunderground v.1.15,2013-01-23 12:41:00,
2013-01-23 06:43:00,25.2,22.1,30.10,NNE,25,0.0,0.0,88,0.00,,,0.00,Wunderground v.1.15,2013-01-23 12:43:00,
2013-01-23 06:44:00,25.2,22.1,30.10,NNE,25,0.0,0.0,88,0.00,,,0.00,Wunderground v.1.15,2013-01-23 12:44:00,
2013-01-23 06:45:00,25.2,22.1,30.10,NNE,25,0.0,0.0,88,0.00,,,0.00,Wunderground v.1.15,2013-01-23 12:45:00,
2013-01-23 06:48:00,25.2,22.1,30.10,NNE,25,0.0,0.0,88,0.00,,,0.00,Wunderground v.1.15,2013-01-23 12:48:00,
2013-01-23 06:49:00,25.2,22.1,30.10,NNE,25,0.0,0.0,88,0.00,,,0.00,Wunderground v.1.15,2013-01-23 12:49:00,
2013-01-23 06:50:00,25.1,22.0,30.10,NNE,25,0.0,0.0,88,0.00,,,0.00,Wunderground v.1.15,2013-01-23 12:50:00,
2013-01-23 06:53:00,25.1,22.0,30.10,NNE,25,0.0,0.0,88,0.00,,,0.00,Wunderground v.1.15,2013-01-23 12:53:00,
2013-01-23 06:54:00,25.1,22.0,30.10,NNE,24,0.0,0.0,88,0.00,,,0.00,Wunderground v.1.15,2013-01-23 12:54:00,
2013-01-23 06:55:00,25.1,22.0,30.10,NNE,25,0.0,0.0,88,0.00,,,0.00,Wunderground v.1.15,2013-01-23 12:55:00,
2013-01-23 06:59:00,25.1,22.0,30.10,NNE,25,0.0,0.0,88,0.00,,,0.00,Wunderground v.1.15,2013-01-23 12:59:00,
2013-01-23 07:00:00,25.1,22.0,30.10,NNE,25,0.0,0.0,88,0.00,,,0.00,Wunderground v.1.15,2013-01-23 13:00:00,
2013-01-23 07:04:00,25.0,21.9,30.10,NNE,25,0.0,0.0,88,0.00,,,0.00,Wunderground v.1.15,2013-01-23 13:04:00,
2013-01-23 07:05:00,25.0,21.9,30.10,NNE,25,0.0,0.0,88,0.00,,,0.00,Wunderground v.1.15,2013-01-23 13:05:00,
2013-01-23 07:06:00,25.0,21.9,30.10,NNE,25,0.0,0.0,88,0.00,,,0.00,Wunderground v.1.15,2013-01-23 13:06:00,
2013-01-23 07:09:00,25.0,22.2,30.10,NNE,24,0.0,0.0,89,0.00,,,0.00,Wunderground v.1.15,2013-01-23 13:09:00,
2013-01-23 07:10:00,25.0,22.2,30.10,NNE,25,0.0,0.0,89,0.00,,,0.00,Wunderground v.1.15,2013-01-23 13:10:00,
2013-01-23 07:11:00,25.1,22.3,30.10,NNE,25,0.0,0.0,89,0.00,,,0.00,Wunderground v.1.15,2013-01-23 13:11:00,
2013-01-23 07:14:00,25.1,22.3,30.10,NNE,25,0.0,0.0,89,0.00,,,0.00,Wunderground v.1.15,2013-01-23 13:14:00,
2013-01-23 07:15:00,25.1,22.3,30.10,NNE,25,0.0,0.0,89,0.00,,,0.00,Wunderground v.1.15,2013-01-23 13:15:00,
2013-01-23 07:16:00,25.1,22.3,30.10,NNE,25,0.0,0.0,89,0.00,,,0.00,Wunderground v.1.15,2013-01-23 13:16:00,
2013-01-23 07:19:00,25.1,22.3,30.10,NNE,25,0.0,0.0,89,0.00,,,0.00,Wunderground v.1.15,2013-01-23 13:19:00,
2013-01-23 07:20:00,25.1,22.3,30.10,NNE,25,0.0,0.0,89,0.00,,,0.00,Wunderground v.1.15,2013-01-23 13:20:00,
2013-01-23 07:21:00,25.1,22.3,30.10,NNE,25,0.0,0.0,89,0.00,,,0.00,Wunderground v.1.15,2013-01-23 13:21:00,
2013-01-23 07:24:00,25.2,22.4,30.10,NNE,24,0.0,0.0,89,0.00,,,0.00,Wunderground v.1.15,2013-01-23 13:24:00,
2013-01-23 07:25:00,25.2,22.4,30.10,NNE,25,0.0,0.0,89,0.00,,,0.00,Wunderground v.1.15,2013-01-23 13:25:00,
2013-01-23 07:26:00,25.2,22.4,30.10,NNE,25,0.0,0.0,89,0.00,,,0.00,Wunderground v.1.15,2013-01-23 13:26:00,
2013-01-23 07:30:00,25.3,22.5,30.10,NNE,24,0.0,0.0,89,0.00,,,0.00,Wunderground v.1.15,2013-01-23 13:30:00,
2013-01-23 07:31:00,25.3,22.5,30.10,NNE,25,0.0,0.0,89,0.00,,,0.00,Wunderground v.1.15,2013-01-23 13:31:00,
2013-01-23 07:35:00,25.7,23.2,30.09,NNE,24,0.0,0.0,90,0.00,,,0.00,Wunderground v.1.15,2013-01-23 13:35:00,
2013-01-23 07:36:00,25.7,23.2,30.10,NNE,24,0.0,0.0,90,0.00,,,0.00,Wunderground v.1.15,2013-01-23 13:36:00,
2013-01-23 07:37:00,25.8,23.3,30.10,NNE,25,0.0,0.0,90,0.00,,,0.00,Wunderground v.1.15,2013-01-23 13:37:00,
2013-01-23 07:40:00,26.1,23.6,30.10,NNE,25,0.0,0.0,90,0.00,,,0.00,Wunderground v.1.15,2013-01-23 13:40:00,
2013-01-23 07:41:00,26.2,23.7,30.10,NNE,25,0.0,0.0,90,0.00,,,0.00,Wunderground v.1.15,2013-01-23 13:41:00,
2013-01-23 07:42:00,26.2,23.7,30.10,NNE,25,0.0,0.0,90,0.00,,,0.00,Wunderground v.1.15,2013-01-23 13:42:00,
2013-01-23 07:45:00,26.5,24.0,30.09,NNE,25,0.0,0.0,90,0.00,,,0.00,Wunderground v.1.15,2013-01-23 13:45:00,
2013-01-23 07:46:00,26.5,24.0,30.09,NNE,24,0.0,0.0,90,0.00,,,0.00,Wunderground v.1.15,2013-01-23 13:46:00,
2013-01-23 07:47:00,26.7,24.2,30.09,NNE,25,0.0,0.0,90,0.00,,,0.00,Wunderground v.1.15,2013-01-23 13:47:00,
2013-01-23 07:50:00,27.0,24.5,30.10,NNE,25,0.0,0.0,90,0.00,,,0.00,Wunderground v.1.15,2013-01-23 13:50:00,
2013-01-23 07:51:00,27.0,24.5,30.10,NNE,24,0.0,0.0,90,0.00,,,0.00,Wunderground v.1.15,2013-01-23 13:51:00,
2013-01-23 07:52:00,27.1,24.6,30.10,NNE,25,0.0,0.0,90,0.00,,,0.00,Wunderground v.1.15,2013-01-23 13:52:00,
2013-01-23 07:56:00,27.5,25.0,30.10,NNE,25,0.0,0.0,90,0.00,,,0.00,Wunderground v.1.15,2013-01-23 13:56:00,
2013-01-23 07:57:00,27.6,25.1,30.10,NNE,25,0.0,0.0,90,0.00,,,0.00,Wunderground v.1.15,2013-01-23 13:57:00,
2013-01-23 08:01:00,28.1,25.5,30.10,NNE,25,0.0,0.0,90,0.00,,,0.00,Wunderground v.1.15,2013-01-23 14:01:00,
2013-01-23 08:02:00,28.1,25.5,30.10,NNE,25,0.0,0.0,90,0.00,,,0.00,Wunderground v.1.15,2013-01-23 14:02:00,
2013-01-23 08:07:00,28.7,25.6,30.10,NNE,25,0.0,0.0,88,0.00,,,0.00,Wunderground v.1.15,2013-01-23 14:07:00,
2013-01-23 08:12:00,29.4,25.4,30.10,NNE,24,0.0,0.0,85,0.00,,,0.00,Wunderground v.1.15,2013-01-23 14:12:00,
2013-01-23 08:13:00,29.7,25.7,30.10,NNE,25,0.0,0.0,85,0.00,,,0.00,Wunderground v.1.15,2013-01-23 14:13:00,
2013-01-23 08:17:00,30.1,25.6,30.10,NNE,24,0.0,0.0,83,0.00,,,0.00,Wunderground v.1.15,2013-01-23 14:17:00,
2013-01-23 08:18:00,30.2,25.7,30.10,NNE,25,0.0,0.0,83,0.00,,,0.00,Wunderground v.1.15,2013-01-23 14:18:00,
2013-01-23 08:22:00,30.8,25.7,30.10,NNE,26,0.0,0.0,81,0.00,,,0.00,Wunderground v.1.15,2013-01-23 14:22:00,
2013-01-23 08:23:00,30.9,25.5,30.10,NNE,25,0.0,0.0,80,0.00,,,0.00,Wunderground v.1.15,2013-01-23 14:23:00,
2013-01-23 08:28:00,31.4,25.9,30.10,NNE,26,0.0,0.0,80,0.00,,,0.00,Wunderground v.1.15,2013-01-23 14:28:00,
2013-01-23 08:33:00,31.8,25.7,30.11,ENE,61,0.0,0.0,78,0.00,,,0.00,Wunderground v.1.15,2013-01-23 14:33:00,
2013-01-23 08:34:00,31.9,25.8,30.11,ENE,61,0.0,0.0,78,0.00,,,0.00,Wunderground v.1.15,2013-01-23 14:34:00,
2013-01-23 08:38:00,32.1,25.7,30.11,ENE,60,0.0,0.0,77,0.00,,,0.00,Wunderground v.1.15,2013-01-23 14:38:00,
2013-01-23 08:39:00,32.2,25.8,30.11,ENE,60,0.0,0.0,77,0.00,,,0.00,Wunderground v.1.15,2013-01-23 14:39:00,
2013-01-23 08:43:00,32.5,26.1,30.11,ENE,61,0.0,0.0,77,0.00,,,0.00,Wunderground v.1.15,2013-01-23 14:43:00,
2013-01-23 08:44:00,32.5,26.1,30.10,ENE,61,0.0,0.0,77,0.00,,,0.00,Wunderground v.1.15,2013-01-23 14:44:00,
2013-01-23 08:48:00,32.8,26.4,30.10,ENE,61,0.0,0.0,77,0.00,,,0.00,Wunderground v.1.15,2013-01-23 14:48:00,
2013-01-23 08:49:00,32.8,26.1,30.10,ENE,61,0.0,0.0,76,0.00,,,0.00,Wunderground v.1.15,2013-01-23 14:49:00,
2013-01-23 08:53:00,33.1,26.7,30.10,ENE,65,0.0,0.0,77,0.00,,,0.00,Wunderground v.1.15,2013-01-23 14:53:00,
2013-01-23 08:54:00,33.1,26.7,30.10,ENE,65,0.0,0.0,77,0.00,,,0.00,Wunderground v.1.15,2013-01-23 14:54:00,
2013-01-23 08:55:00,33.2,26.8,30.10,ENE,65,0.0,0.0,77,0.00,,,0.00,Wunderground v.1.15,2013-01-23 14:55:00,
2013-01-23 08:58:00,33.5,27.1,30.10,ENE,62,0.0,1.0,77,0.00,,,0.00,Wunderground v.1.15,2013-01-23 14:58:00,
2013-01-23 08:59:00,33.6,26.8,30.10,ENE,62,0.0,1.0,76,0.00,,,0.00,Wunderground v.1.15,2013-01-23 14:59:00,
2013-01-23 09:00:00,33.7,26.9,30.10,ENE,62,0.0,1.0,76,0.00,,,0.00,Wunderground v.1.15,2013-01-23 15:00:00,
2013-01-23 09:03:00,33.9,27.4,30.10,ENE,62,0.0,0.0,77,0.00,,,0.00,Wunderground v.1.15,2013-01-23 15:03:00,
2013-01-23 09:04:00,34.0,27.5,30.10,ENE,62,0.0,0.0,77,0.00,,,0.00,Wunderground v.1.15,2013-01-23 15:04:00,
2013-01-23 09:05:00,34.1,27.3,30.10,ENE,68,0.0,0.0,76,0.00,,,0.00,Wunderground v.1.15,2013-01-23 15:05:00,
2013-01-23 09:09:00,34.4,27.6,30.10,ENE,68,0.0,0.0,76,0.00,,,0.00,Wunderground v.1.15,2013-01-23 15:09:00,
2013-01-23 09:10:00,34.4,27.3,30.10,ENE,76,0.0,0.0,75,0.00,,,0.00,Wunderground v.1.15,2013-01-23 15:10:00,
2013-01-23 09:11:00,34.5,27.1,30.10,ENE,76,0.0,0.0,74,0.00,,,0.00,Wunderground v.1.15,2013-01-23 15:11:00,
2013-01-23 09:15:00,34.9,27.5,30.10,East,94,0.0,0.0,74,0.00,,,0.00,Wunderground v.1.15,2013-01-23 15:15:00,
2013-01-23 09:16:00,35.1,27.3,30.10,East,94,0.0,0.0,73,0.00,,,0.00,Wunderground v.1.15,2013-01-23 15:16:00,
2013-01-23 09:20:00,35.5,27.7,30.10,South,173,0.0,5.0,73,0.00,,,0.00,Wunderground v.1.15,2013-01-23 15:20:00,
2013-01-23 09:21:00,35.5,27.7,30.10,South,173,0.0,5.0,73,0.00,,,0.00,Wunderground v.1.15,2013-01-23 15:21:00,
2013-01-23 09:26:00,35.9,27.7,30.10,South,173,0.0,0.0,72,0.00,,,0.00,Wunderground v.1.15,2013-01-23 15:26:00,
2013-01-23 09:27:00,36.0,27.8,30.10,South,174,1.0,1.0,72,0.00,,,0.00,Wunderground v.1.15,2013-01-23 15:27:00,
2013-01-23 09:31:00,36.3,28.1,30.10,South,173,0.0,2.0,72,0.00,,,0.00,Wunderground v.1.15,2013-01-23 15:31:00,
2013-01-23 09:32:00,36.4,28.2,30.10,South,174,0.0,0.0,72,0.00,,,0.00,Wunderground v.1.15,2013-01-23 15:32:00,
2013-01-23 09:36:00,36.7,28.2,30.10,South,186,1.0,3.0,71,0.00,,,0.00,Wunderground v.1.15,2013-01-23 15:36:00,
2013-01-23 09:37:00,36.7,28.2,30.10,SSW,197,2.0,3.0,71,0.00,,,0.00,Wunderground v.1.15,2013-01-23 15:37:00,
2013-01-23 09:41:00,37.1,28.6,30.11,SSW,196,0.0,0.0,71,0.00,,,0.00,Wunderground v.1.15,2013-01-23 15:41:00,
2013-01-23 09:42:00,37.1,28.6,30.11,SSW,196,0.0,0.0,71,0.00,,,0.00,Wunderground v.1.15,2013-01-23 15:42:00,
2013-01-23 09:46:00,37.5,28.2,30.11,South,184,2.0,2.0,69,0.00,,,0.00,Wunderground v.1.15,2013-01-23 15:46:00,
2013-01-23 09:47:00,37.6,28.3,30.11,South,186,0.0,3.0,69,0.00,,,0.00,Wunderground v.1.15,2013-01-23 15:47:00,
2013-01-23 09:48:00,37.7,28.4,30.11,South,186,0.0,3.0,69,0.00,,,0.00,Wunderground v.1.15,2013-01-23 15:48:00,
2013-01-23 09:52:00,37.9,28.6,30.11,South,186,0.0,0.0,69,0.00,,,0.00,Wunderground v.1.15,2013-01-23 15:52:00,
2013-01-23 09:53:00,38.0,28.7,30.11,South,186,0.0,2.0,69,0.00,,,0.00,Wunderground v.1.15,2013-01-23 15:53:00,
2013-01-23 09:54:00,38.1,28.8,30.11,South,186,0.0,2.0,69,0.00,,,0.00,Wunderground v.1.15,2013-01-23 15:54:00,
2013-01-23 09:57:00,38.3,29.0,30.11,South,188,0.0,2.0,69,0.00,,,0.00,Wunderground v.1.15,2013-01-23 15:57:00,
2013-01-23 09:58:00,38.4,28.8,30.11,South,182,0.0,3.0,68,0.00,,,0.00,Wunderground v.1.15,2013-01-23 15:58:00,
2013-01-23 09:59:00,38.4,28.8,30.11,South,182,0.0,3.0,68,0.00,,,0.00,Wunderground v.1.15,2013-01-23 15:59:00,
2013-01-23 10:02:00,38.6,28.9,30.10,South,183,0.0,1.0,68,0.00,,,0.00,Wunderground v.1.15,2013-01-23 16:02:00,
2013-01-23 10:03:00,38.7,29.0,30.10,South,183,0.0,1.0,68,0.00,,,0.00,Wunderground v.1.15,2013-01-23 16:03:00,
2013-01-23 10:04:00,38.7,29.0,30.10,South,183,0.0,1.0,68,0.00,,,0.00,Wunderground v.1.15,2013-01-23 16:04:00,
2013-01-23 10:08:00,38.9,29.2,30.10,South,183,0.0,1.0,68,0.00,,,0.00,Wunderground v.1.15,2013-01-23 16:08:00,
2013-01-23 10:09:00,39.0,29.3,30.10,South,183,0.0,1.0,68,0.00,,,0.00,Wunderground v.1.15,2013-01-23 16:09:00,
2013-01-23 10:10:00,39.0,29.3,30.10,South,183,0.0,1.0,68,0.00,,,0.00,Wunderground v.1.15,2013-01-23 16:10:00,
2013-01-23 10:13:00,39.2,29.5,30.10,South,183,0.0,0.0,68,0.00,,,0.00,Wunderground v.1.15,2013-01-23 16:13:00,
2013-01-23 10:14:00,39.3,29.6,30.10,South,183,0.0,0.0,68,0.00,,,0.00,Wunderground v.1.15,2013-01-23 16:14:00,
2013-01-23 10:15:00,39.4,30.1,30.10,South,183,0.0,0.0,69,0.00,,,0.00,Wunderground v.1.15,2013-01-23 16:15:00,
2013-01-23 10:18:00,39.7,30.0,30.10,South,183,0.0,0.0,68,0.00,,,0.00,Wunderground v.1.15,2013-01-23 16:18:00,
2013-01-23 10:19:00,39.8,30.1,30.10,South,183,0.0,0.0,68,0.00,,,0.00,Wunderground v.1.15,2013-01-23 16:19:00,
2013-01-23 10:20:00,39.8,30.1,30.10,South,183,0.0,0.0,68,0.00,,,0.00,Wunderground v.1.15,2013-01-23 16:20:00,
2013-01-23 10:21:00,39.9,29.8,30.10,South,183,0.0,1.0,67,0.00,,,0.00,Wunderground v.1.15,2013-01-23 16:21:00,
2013-01-23 10:24:00,40.2,30.5,30.09,South,183,0.0,0.0,68,0.00,,,0.00,Wunderground v.1.15,2013-01-23 16:24:00,
2013-01-23 10:25:00,40.4,30.3,30.09,South,183,1.0,1.0,67,0.00,,,0.00,Wunderground v.1.15,2013-01-23 16:25:00,
2013-01-23 10:26:00,40.5,30.4,30.09,South,186,0.0,3.0,67,0.00,,,0.00,Wunderground v.1.15,2013-01-23 16:26:00,
2013-01-23 10:29:00,40.8,30.7,30.09,South,188,0.0,3.0,67,0.00,,,0.00,Wunderground v.1.15,2013-01-23 16:29:00,
2013-01-23 10:30:00,40.9,30.8,30.09,South,188,0.0,3.0,67,0.00,,,0.00,Wunderground v.1.15,2013-01-23 16:30:00,
2013-01-23 10:32:00,41.0,30.5,30.09,South,183,2.0,2.0,66,0.00,,,0.00,Wunderground v.1.15,2013-01-23 16:32:00,
2013-01-23 10:34:00,41.1,30.2,30.09,SSE,167,1.0,5.0,65,0.00,,,0.00,Wunderground v.1.15,2013-01-23 16:34:00,
2013-01-23 10:35:00,41.1,30.6,30.09,SSE,168,0.0,5.0,66,0.00,,,0.00,Wunderground v.1.15,2013-01-23 16:35:00,
2013-01-23 10:37:00,41.2,30.7,30.09,SSW,192,1.0,5.0,66,0.00,,,0.00,Wunderground v.1.15,2013-01-23 16:37:00,
2013-01-23 10:39:00,41.4,30.9,30.09,SSW,193,0.0,5.0,66,0.00,,,0.00,Wunderground v.1.15,2013-01-23 16:39:00,
2013-01-23 10:40:00,41.5,31.0,30.09,South,180,4.0,5.0,66,0.00,,,0.00,Wunderground v.1.15,2013-01-23 16:40:00,
2013-01-23 10:41:00,41.6,31.1,30.09,South,183,2.0,5.0,66,0.00,,,0.00,Wunderground v.1.15,2013-01-23 16:41:00,
2013-01-23 10:42:00,41.6,30.7,30.09,South,184,4.0,4.0,65,0.00,,,0.00,Wunderground v.1.15,2013-01-23 16:42:00,
2013-01-23 10:45:00,41.8,30.9,30.09,South,178,0.0,4.0,65,0.00,,,0.00,Wunderground v.1.15,2013-01-23 16:45:00,
2013-01-23 10:46:00,41.9,31.0,30.09,South,179,0.0,4.0,65,0.00,,,0.00,Wunderground v.1.15,2013-01-23 16:46:00,
2013-01-23 10:47:00,42.0,31.1,30.09,South,179,0.0,4.0,65,0.00,,,0.00,Wunderground v.1.15,2013-01-23 16:47:00,
2013-01-23 10:50:00,42.2,30.9,30.09,South,179,0.0,4.0,64,0.00,,,0.00,Wunderground v.1.15,2013-01-23 16:50:00,
2013-01-23 10:51:00,42.3,31.0,30.09,South,179,0.0,0.0,64,0.00,,,0.00,Wunderground v.1.15,2013-01-23 16:51:00,
2013-01-23 10:52:00,42.4,31.5,30.09,South,179,0.0,0.0,65,0.00,,,0.00,Wunderground v.1.15,2013-01-23 16:52:00,
2013-01-23 10:53:00,42.4,31.5,30.09,South,179,0.0,0.0,65,0.00,,,0.00,Wunderground v.1.15,2013-01-23 16:53:00,
2013-01-23 10:55:00,42.5,31.2,30.09,South,180,2.0,2.0,64,0.00,,,0.00,Wunderground v.1.15,2013-01-23 16:55:00,
2013-01-23 10:56:00,42.6,31.3,30.09,South,179,0.0,3.0,64,0.00,,,0.00,Wunderground v.1.15,2013-01-23 16:56:00,
2013-01-23 10:57:00,42.7,31.4,30.09,South,179,0.0,3.0,64,0.00,,,0.00,Wunderground v.1.15,2013-01-23 16:57:00,
2013-01-23 10:58:00,42.7,31.4,30.09,South,180,0.0,3.0,64,0.00,,,0.00,Wunderground v.1.15,2013-01-23 16:58:00,
2013-01-23 11:00:00,42.8,31.8,30.09,South,180,0.0,3.0,65,0.00,,,0.00,Wunderground v.1.15,2013-01-23 17:00:00,
2013-01-23 11:02:00,42.9,31.6,30.09,South,180,2.0,2.0,64,0.00,,,0.00,Wunderground v.1.15,2013-01-23 17:02:00,
2013-01-23 11:05:00,43.1,31.7,30.09,South,180,0.0,2.0,64,0.00,,,0.00,Wunderground v.1.15,2013-01-23 17:05:00,
2013-01-23 11:06:00,43.1,31.7,30.09,South,179,1.0,2.0,64,0.00,,,0.00,Wunderground v.1.15,2013-01-23 17:06:00,
2013-01-23 11:07:00,43.2,31.8,30.09,SSE,160,0.0,4.0,64,0.00,,,0.00,Wunderground v.1.15,2013-01-23 17:07:00,
2013-01-23 11:08:00,43.2,31.4,30.09,SSE,163,1.0,4.0,63,0.00,,,0.00,Wunderground v.1.15,2013-01-23 17:08:00,
2013-01-23 11:10:00,43.3,31.5,30.08,SSE,163,0.0,4.0,63,0.00,,,0.00,Wunderground v.1.15,2013-01-23 17:10:00,
2013-01-23 11:11:00,43.3,31.5,30.08,SSE,167,0.0,4.0,63,0.00,,,0.00,Wunderground v.1.15,2013-01-23 17:11:00,
2013-01-23 11:12:00,43.3,31.5,30.09,South,188,0.0,3.0,63,0.00,,,0.00,Wunderground v.1.15,2013-01-23 17:12:00,
2013-01-23 11:14:00,43.4,32.0,30.09,South,188,0.0,3.0,64,0.00,,,0.00,Wunderground v.1.15,2013-01-23 17:14:00,
2013-01-23 11:15:00,43.4,32.4,30.08,South,189,0.0,3.0,65,0.00,,,0.00,Wunderground v.1.15,2013-01-23 17:15:00,
2013-01-23 11:16:00,43.5,32.5,30.08,South,189,0.0,3.0,65,0.00,,,0.00,Wunderground v.1.15,2013-01-23 17:16:00,
2013-01-23 11:17:00,43.6,32.2,30.08,South,188,0.0,3.0,64,0.00,,,0.00,Wunderground v.1.15,2013-01-23 17:17:00,
2013-01-23 11:19:00,43.7,32.3,30.08,South,189,0.0,3.0,64,0.00,,,0.00,Wunderground v.1.15,2013-01-23 17:19:00,
2013-01-23 11:21:00,43.7,31.9,30.08,South,188,0.0,3.0,63,0.00,,,0.00,Wunderground v.1.15,2013-01-23 17:21:00,
2013-01-23 11:22:00,43.8,32.4,30.08,South,189,0.0,0.0,64,0.00,,,0.00,Wunderground v.1.15,2013-01-23 17:22:00,
2013-01-23 11:24:00,43.8,32.0,30.07,South,186,0.0,2.0,63,0.00,,,0.00,Wunderground v.1.15,2013-01-23 17:24:00,
2013-01-23 11:26:00,43.9,32.5,30.07,South,187,2.0,4.0,64,0.00,,,0.00,Wunderground v.1.15,2013-01-23 17:26:00,
2013-01-23 11:27:00,44.0,32.6,30.07,South,181,1.0,4.0,64,0.00,,,0.00,Wunderground v.1.15,2013-01-23 17:27:00,
2013-01-23 11:30:00,44.1,32.3,30.07,South,180,0.0,4.0,63,0.00,,,0.00,Wunderground v.1.15,2013-01-23 17:30:00,
2013-01-23 11:31:00,44.3,32.9,30.07,South,180,0.0,1.0,64,0.00,,,0.00,Wunderground v.1.15,2013-01-23 17:31:00,
2013-01-23 11:32:00,44.3,32.5,30.07,South,179,0.0,1.0,63,0.00,,,0.00,Wunderground v.1.15,2013-01-23 17:32:00,
2013-01-23 11:33:00,44.3,32.5,30.07,South,180,0.0,1.0,63,0.00,,,0.00,Wunderground v.1.15,2013-01-23 17:33:00,
2013-01-23 11:35:00,44.5,33.1,30.07,South,179,0.0,1.0,64,0.00,,,0.00,Wunderground v.1.15,2013-01-23 17:35:00,
2013-01-23 11:36:00,44.6,33.2,30.07,South,182,0.0,2.0,64,0.00,,,0.00,Wunderground v.1.15,2013-01-23 17:36:00,
2013-01-23 11:38:00,44.7,33.3,30.07,South,182,2.0,4.0,64,0.00,,,0.00,Wunderground v.1.15,2013-01-23 17:38:00,
2013-01-23 11:40:00,44.7,32.9,30.07,South,174,0.0,4.0,63,0.00,,,0.00,Wunderground v.1.15,2013-01-23 17:40:00,
2013-01-23 11:41:00,44.7,32.9,30.07,South,174,0.0,1.0,63,0.00,,,0.00,Wunderground v.1.15,2013-01-23 17:41:00,
2013-01-23 11:43:00,44.7,32.9,30.07,SE,140,0.0,1.0,63,0.00,,,0.00,Wunderground v.1.15,2013-01-23 17:43:00,
2013-01-23 11:44:00,44.7,32.9,30.07,SE,140,0.0,1.0,63,0.00,,,0.00,Wunderground v.1.15,2013-01-23 17:44:00,
2013-01-23 11:45:00,44.7,32.9,30.06,SSE,152,0.0,1.0,63,0.00,,,0.00,Wunderground v.1.15,2013-01-23 17:45:00,
2013-01-23 11:48:00,44.8,33.4,30.07,SSE,151,0.0,1.0,64,0.00,,,0.00,Wunderground v.1.15,2013-01-23 17:48:00,
2013-01-23 11:49:00,44.8,33.4,30.06,South,173,3.0,3.0,64,0.00,,,0.00,Wunderground v.1.15,2013-01-23 17:49:00,
2013-01-23 11:50:00,44.8,33.4,30.06,South,173,0.0,3.0,64,0.00,,,0.00,Wunderground v.1.15,2013-01-23 17:50:00,
2013-01-23 11:51:00,44.8,33.4,30.06,South,173,0.0,3.0,64,0.00,,,0.00,Wunderground v.1.15,2013-01-23 17:51:00,
2013-01-23 11:54:00,44.8,33.4,30.06,South,174,0.0,0.0,64,0.00,,,0.00,Wunderground v.1.15,2013-01-23 17:54:00,
2013-01-23 11:55:00,44.8,33.4,30.07,South,174,0.0,0.0,64,0.00,,,0.00,Wunderground v.1.15,2013-01-23 17:55:00,
2013-01-23 11:56:00,44.8,33.4,30.07,South,174,0.0,0.0,64,0.00,,,0.00,Wunderground v.1.15,2013-01-23 17:56:00,
2013-01-23 11:59:00,44.9,33.5,30.06,South,174,0.0,0.0,64,0.00,,,0.00,Wunderground v.1.15,2013-01-23 17:59:00,
2013-01-23 12:00:00,44.9,33.5,30.06,South,174,0.0,0.0,64,0.00,,,0.00,Wunderground v.1.15,2013-01-23 18:00:00,
2013-01-23 12:01:00,45.0,33.9,30.06,South,174,0.0,0.0,65,0.00,,,0.00,Wunderground v.1.15,2013-01-23 18:01:00,
2013-01-23 12:04:00,45.0,33.5,30.06,South,175,0.0,4.0,64,0.00,,,0.00,Wunderground v.1.15,2013-01-23 18:04:00,
2013-01-23 12:05:00,45.0,33.5,30.06,South,174,0.0,4.0,64,0.00,,,0.00,Wunderground v.1.15,2013-01-23 18:05:00,
2013-01-23 12:06:00,45.0,33.2,30.06,South,173,2.0,4.0,63,0.00,,,0.00,Wunderground v.1.15,2013-01-23 18:06:00,
2013-01-23 12:09:00,44.9,33.1,30.05,South,175,1.0,4.0,63,0.00,,,0.00,Wunderground v.1.15,2013-01-23 18:09:00,
2013-01-23 12:10:00,44.9,33.1,30.05,South,176,0.0,4.0,63,0.00,,,0.00,Wunderground v.1.15,2013-01-23 18:10:00,
2013-01-23 12:12:00,44.9,33.5,30.05,South,180,0.0,2.0,64,0.00,,,0.00,Wunderground v.1.15,2013-01-23 18:12:00,
2013-01-23 12:14:00,44.9,33.5,30.06,South,180,0.0,2.0,64,0.00,,,0.00,Wunderground v.1.15,2013-01-23 18:14:00,
2013-01-23 12:15:00,44.9,33.5,30.05,South,179,0.0,2.0,64,0.00,,,0.00,Wunderground v.1.15,2013-01-23 18:15:00,
2013-01-23 12:17:00,44.9,33.1,30.05,South,180,0.0,2.0,63,0.00,,,0.00,Wunderground v.1.15,2013-01-23 18:17:00,
2013-01-23 12:19:00,45.0,33.2,30.05,South,180,0.0,2.0,63,0.00,,,0.00,Wunderground v.1.15,2013-01-23 18:19:00,
2013-01-23 12:20:00,45.0,33.2,30.05,South,180,0.0,2.0,63,0.00,,,0.00,Wunderground v.1.15,2013-01-23 18:20:00,
2013-01-23 12:21:00,45.0,33.5,30.05,South,180,0.0,2.0,64,0.00,,,0.00,Wunderground v.1.15,2013-01-23 18:21:00,
2013-01-23 12:22:00,45.0,33.2,30.05,South,179,0.0,0.0,63,0.00,,,0.00,Wunderground v.1.15,2013-01-23 18:22:00,
2013-01-23 12:24:00,45.0,33.2,30.05,South,179,0.0,0.0,63,0.00,,,0.00,Wunderground v.1.15,2013-01-23 18:24:00,
2013-01-23 12:25:00,45.0,33.2,30.05,South,180,0.0,0.0,63,0.00,,,0.00,Wunderground v.1.15,2013-01-23 18:25:00,
2013-01-23 12:26:00,45.0,33.2,30.05,South,180,0.0,0.0,63,0.00,,,0.00,Wunderground v.1.15,2013-01-23 18:26:00,
2013-01-23 12:28:00,45.0,33.2,30.05,South,180,0.0,0.0,63,0.00,,,0.00,Wunderground v.1.15,2013-01-23 18:28:00,
2013-01-23 12:30:00,45.1,33.2,30.05,South,180,0.0,0.0,63,0.00,,,0.00,Wunderground v.1.15,2013-01-23 18:30:00,
2013-01-23 12:31:00,45.1,33.2,30.05,South,179,0.0,0.0,63,0.00,,,0.00,Wunderground v.1.15,2013-01-23 18:31:00,
2013-01-23 12:33:00,45.2,33.3,30.04,South,180,0.0,0.0,63,0.00,,,0.00,Wunderground v.1.15,2013-01-23 18:33:00,
2013-01-23 12:36:00,45.3,33.4,30.03,South,180,0.0,0.0,63,0.00,,,0.00,Wunderground v.1.15,2013-01-23 18:36:00,
2013-01-23 12:38:00,45.4,33.1,30.03,South,179,0.0,0.0,62,0.00,,,0.00,Wunderground v.1.15,2013-01-23 18:38:00,
2013-01-23 12:41:00,45.5,33.2,30.03,South,180,0.0,0.0,62,0.00,,,0.00,Wunderground v.1.15,2013-01-23 18:41:00,
2013-01-23 12:42:00,45.5,33.2,30.03,South,179,0.0,0.0,62,0.00,,,0.00,Wunderground v.1.15,2013-01-23 18:42:00,
2013-01-23 12:44:00,45.6,33.3,30.03,South,179,0.0,0.0,62,0.00,,,0.00,Wunderground v.1.15,2013-01-23 18:44:00,
2013-01-23 12:47:00,45.7,33.4,30.03,South,180,0.0,0.0,62,0.00,,,0.00,Wunderground v.1.15,2013-01-23 18:47:00,
2013-01-23 12:50:00,45.9,33.6,30.03,South,179,2.0,2.0,62,0.00,,,0.00,Wunderground v.1.15,2013-01-23 18:50:00,
2013-01-23 12:52:00,46.0,33.7,30.02,SSE,167,1.0,4.0,62,0.00,,,0.00,Wunderground v.1.15,2013-01-23 18:52:00,
2013-01-23 12:56:00,46.2,33.9,30.02,South,174,0.0,5.0,62,0.00,,,0.00,Wunderground v.1.15,2013-01-23 18:56:00,
2013-01-23 12:57:00,46.3,33.6,30.02,South,174,0.0,5.0,61,0.00,,,0.00,Wunderground v.1.15,2013-01-23 18:57:00,
2013-01-23 12:58:00,46.3,33.6,30.02,South,174,0.0,5.0,61,0.00,,,0.00,Wunderground v.1.15,2013-01-23 18:58:00,
2013-01-23 13:01:00,46.4,33.7,30.02,South,183,2.0,5.0,61,0.00,,,0.00,Wunderground v.1.15,2013-01-23 19:01:00,
2013-01-23 13:03:00,46.5,33.8,30.01,South,176,0.0,4.0,61,0.00,,,0.00,Wunderground v.1.15,2013-01-23 19:03:00,
2013-01-23 13:04:00,46.7,34.0,30.01,South,180,0.0,4.0,61,0.00,,,0.00,Wunderground v.1.15,2013-01-23 19:04:00,
2013-01-23 13:06:00,46.8,34.5,30.01,South,183,3.0,4.0,62,0.00,,,0.00,Wunderground v.1.15,2013-01-23 19:06:00,
2013-01-23 13:08:00,46.9,33.7,30.01,South,173,0.0,4.0,60,0.00,,,0.00,Wunderground v.1.15,2013-01-23 19:08:00,
2013-01-23 13:10:00,47.2,34.4,30.01,South,184,2.0,4.0,61,0.00,,,0.00,Wunderground v.1.15,2013-01-23 19:10:00,
2013-01-23 13:12:00,47.4,34.6,30.01,South,172,2.0,4.0,61,0.00,,,0.00,Wunderground v.1.15,2013-01-23 19:12:00,
2013-01-23 13:13:00,47.4,34.6,30.01,South,173,2.0,4.0,61,0.00,,,0.00,Wunderground v.1.15,2013-01-23 19:13:00,
2013-01-23 13:15:00,47.6,34.8,30.01,South,180,2.0,4.0,61,0.00,,,0.00,Wunderground v.1.15,2013-01-23 19:15:00,
2013-01-23 13:18:00,47.8,34.6,30.01,South,178,0.0,4.0,60,0.00,,,0.00,Wunderground v.1.15,2013-01-23 19:18:00,
2013-01-23 13:19:00,47.8,34.6,30.01,South,178,2.0,4.0,60,0.00,,,0.00,Wunderground v.1.15,2013-01-23 19:19:00,
2013-01-23 13:20:00,47.9,34.7,30.00,SSW,206,3.0,6.0,60,0.00,,,0.00,Wunderground v.1.15,2013-01-23 19:20:00,
2013-01-23 13:23:00,48.1,34.9,30.00,SSE,165,2.0,3.0,60,0.00,,,0.00,Wunderground v.1.15,2013-01-23 19:23:00,
2013-01-23 13:24:00,48.1,34.9,30.00,SSW,200,3.0,4.0,60,0.00,,,0.00,Wunderground v.1.15,2013-01-23 19:24:00,
2013-01-23 13:25:00,48.1,34.4,30.00,South,180,0.0,5.0,59,0.00,,,0.00,Wunderground v.1.15,2013-01-23 19:25:00,
2013-01-23 13:29:00,48.2,35.0,30.00,South,187,2.0,5.0,60,0.00,,,0.00,Wunderground v.1.15,2013-01-23 19:29:00,
2013-01-23 13:30:00,48.3,35.0,30.00,South,176,0.0,5.0,60,0.00,,,0.00,Wunderground v.1.15,2013-01-23 19:30:00,
2013-01-23 13:35:00,48.5,34.8,29.99,South,184,0.0,6.0,59,0.00,,,0.00,Wunderground v.1.15,2013-01-23 19:35:00,
2013-01-23 13:36:00,48.6,34.9,30.00,South,184,0.0,6.0,59,0.00,,,0.00,Wunderground v.1.15,2013-01-23 19:36:00,
2013-01-23 13:40:00,48.8,35.1,30.00,South,173,0.0,6.0,59,0.00,,,0.00,Wunderground v.1.15,2013-01-23 19:40:00,
2013-01-23 13:41:00,48.8,35.1,29.99,South,171,0.0,6.0,59,0.00,,,0.00,Wunderground v.1.15,2013-01-23 19:41:00,
2013-01-23 13:42:00,48.8,35.1,29.99,South,190,0.0,1.0,59,0.00,,,0.00,Wunderground v.1.15,2013-01-23 19:42:00,
2013-01-23 13:45:00,49.1,35.4,30.00,SSW,194,0.0,1.0,59,0.00,,,0.00,Wunderground v.1.15,2013-01-23 19:45:00,
2013-01-23 13:46:00,49.2,35.9,30.00,SSW,194,0.0,1.0,60,0.00,,,0.00,Wunderground v.1.15,2013-01-23 19:46:00,
2013-01-23 13:47:00,49.4,36.1,30.00,SSW,192,0.0,1.0,60,0.00,,,0.00,Wunderground v.1.15,2013-01-23 19:47:00,
2013-01-23 13:50:00,49.7,35.5,30.00,South,190,0.0,2.0,58,0.00,,,0.00,Wunderground v.1.15,2013-01-23 19:50:00,
2013-01-23 13:51:00,49.8,35.6,30.00,South,179,3.0,4.0,58,0.00,,,0.00,Wunderground v.1.15,2013-01-23 19:51:00,
2013-01-23 13:53:00,49.9,36.1,30.00,South,179,0.0,2.0,59,0.00,,,0.00,Wunderground v.1.15,2013-01-23 19:53:00,
2013-01-23 13:55:00,50.1,35.9,29.99,SSE,167,0.0,5.0,58,0.00,,,0.00,Wunderground v.1.15,2013-01-23 19:55:00,
2013-01-23 13:57:00,50.2,36.0,29.99,South,182,4.0,5.0,58,0.00,,,0.00,Wunderground v.1.15,2013-01-23 19:57:00,
2013-01-23 13:58:00,50.3,36.1,29.99,SSW,194,3.0,5.0,58,0.00,,,0.00,Wunderground v.1.15,2013-01-23 19:58:00,
2013-01-23 14:00:00,50.4,36.2,29.99,South,172,0.0,5.0,58,0.00,,,0.00,Wunderground v.1.15,2013-01-23 20:00:00,
2013-01-23 14:01:00,50.4,36.2,29.99,South,171,4.0,5.0,58,0.00,,,0.00,Wunderground v.1.15,2013-01-23 20:01:00,
2013-01-23 14:02:00,50.5,36.3,29.99,SW,228,0.0,2.0,58,0.00,,,0.00,Wunderground v.1.15,2013-01-23 20:02:00,
2013-01-23 14:03:00,50.6,35.9,29.99,South,178,0.0,2.0,57,0.00,,,0.00,Wunderground v.1.15,2013-01-23 20:03:00,
2013-01-23 14:05:00,50.7,36.0,29.99,South,175,2.0,3.0,57,0.00,,,0.00,Wunderground v.1.15,2013-01-23 20:05:00,
2013-01-23 14:06:00,50.7,36.0,29.99,SSW,203,2.0,3.0,57,0.00,,,0.00,Wunderground v.1.15,2013-01-23 20:06:00,
2013-01-23 14:07:00,50.8,36.1,29.99,SSE,166,1.0,5.0,57,0.00,,,0.00,Wunderground v.1.15,2013-01-23 20:07:00,
2013-01-23 14:08:00,50.9,36.6,29.99,SSE,166,0.0,5.0,58,0.00,,,0.00,Wunderground v.1.15,2013-01-23 20:08:00,
2013-01-23 14:11:00,51.2,36.5,29.99,SSE,165,0.0,5.0,57,0.00,,,0.00,Wunderground v.1.15,2013-01-23 20:11:00,
2013-01-23 14:12:00,51.3,36.6,29.99,SSE,161,0.0,1.0,57,0.00,,,0.00,Wunderground v.1.15,2013-01-23 20:12:00,
2013-01-23 14:13:00,51.3,36.6,29.99,SSE,161,0.0,1.0,57,0.00,,,0.00,Wunderground v.1.15,2013-01-23 20:13:00,
2013-01-23 14:16:00,51.4,36.7,29.99,West,275,0.0,2.0,57,0.00,,,0.00,Wunderground v.1.15,2013-01-23 20:16:00,
2013-01-23 14:18:00,51.5,37.2,29.99,South,174,0.0,2.0,58,0.00,,,0.00,Wunderground v.1.15,2013-01-23 20:18:00,
2013-01-23 14:21:00,51.9,37.1,29.99,South,174,0.0,0.0,57,0.00,,,0.00,Wunderground v.1.15,2013-01-23 20:21:00,
2013-01-23 14:23:00,52.1,37.3,29.99,South,174,0.0,0.0,57,0.00,,,0.00,Wunderground v.1.15,2013-01-23 20:23:00,
2013-01-23 14:27:00,52.3,37.1,29.99,SE,136,3.0,4.0,56,0.00,,,0.00,Wunderground v.1.15,2013-01-23 20:27:00,
2013-01-23 14:28:00,52.4,37.2,29.99,SSW,210,0.0,5.0,56,0.00,,,0.00,Wunderground v.1.15,2013-01-23 20:28:00,
2013-01-23 14:29:00,52.4,37.2,29.99,SSW,210,0.0,5.0,56,0.00,,,0.00,Wunderground v.1.15,2013-01-23 20:29:00,
2013-01-23 14:32:00,52.4,36.7,29.99,SSW,195,0.0,0.0,55,0.00,,,0.00,Wunderground v.1.15,2013-01-23 20:32:00,
2013-01-23 14:33:00,52.5,36.8,29.99,SSW,195,0.0,0.0,55,0.00,,,0.00,Wunderground v.1.15,2013-01-23 20:33:00,
2013-01-23 14:34:00,52.5,37.2,29.99,SSW,195,0.0,0.0,56,0.00,,,0.00,Wunderground v.1.15,2013-01-23 20:34:00,
2013-01-23 14:37:00,52.5,36.8,29.99,SSW,196,0.0,3.0,55,0.00,,,0.00,Wunderground v.1.15,2013-01-23 20:37:00,
2013-01-23 14:38:00,52.5,36.8,29.99,SE,142,2.0,3.0,55,0.00,,,0.00,Wunderground v.1.15,2013-01-23 20:38:00,
2013-01-23 14:39:00,52.5,36.8,29.99,SE,145,3.0,3.0,55,0.00,,,0.00,Wunderground v.1.15,2013-01-23 20:39:00,
2013-01-23 14:43:00,52.4,36.7,29.99,SSE,160,0.0,1.0,55,0.00,,,0.00,Wunderground v.1.15,2013-01-23 20:43:00,
2013-01-23 14:44:00,52.4,36.7,29.99,SSE,160,0.0,1.0,55,0.00,,,0.00,Wunderground v.1.15,2013-01-23 20:44:00,
2013-01-23 14:49:00,52.3,36.6,29.99,SSE,162,0.0,6.0,55,0.00,,,0.00,Wunderground v.1.15,2013-01-23 20:49:00,
2013-01-23 14:50:00,52.3,36.6,29.99,South,174,0.0,6.0,55,0.00,,,0.00,Wunderground v.1.15,2013-01-23 20:50:00,
2013-01-23 14:54:00,52.2,37.0,29.99,South,172,0.0,5.0,56,0.00,,,0.00,Wunderground v.1.15,2013-01-23 20:54:00,
2013-01-23 14:55:00,52.1,36.4,29.99,South,169,4.0,5.0,55,0.00,,,0.00,Wunderground v.1.15,2013-01-23 20:55:00,
2013-01-23 14:59:00,52.2,36.5,29.99,SSE,167,0.0,5.0,55,0.00,,,0.00,Wunderground v.1.15,2013-01-23 20:59:00,
2013-01-23 15:00:00,52.3,36.6,29.99,SSE,167,0.0,5.0,55,0.00,,,0.00,Wunderground v.1.15,2013-01-23 21:00:00,
2013-01-23 15:04:00,52.3,37.1,29.99,SSE,167,0.0,1.0,56,0.00,,,0.00,Wunderground v.1.15,2013-01-23 21:04:00,
2013-01-23 15:07:00,52.3,37.1,29.99,SSE,167,0.0,1.0,56,0.00,,,0.00,Wunderground v.1.15,2013-01-23 21:07:00,
2013-01-23 15:09:00,52.3,37.5,29.99,SSE,167,0.0,1.0,57,0.00,,,0.00,Wunderground v.1.15,2013-01-23 21:09:00,
2013-01-23 15:10:00,52.3,37.1,29.99,SSE,167,0.0,1.0,56,0.00,,,0.00,Wunderground v.1.15,2013-01-23 21:10:00,
2013-01-23 15:12:00,52.3,37.1,29.99,SSE,167,2.0,2.0,56,0.00,,,0.00,Wunderground v.1.15,2013-01-23 21:12:00,
2013-01-23 15:15:00,52.3,37.1,29.99,SSE,167,0.0,2.0,56,0.00,,,0.00,Wunderground v.1.15,2013-01-23 21:15:00,
2013-01-23 15:17:00,52.3,37.1,29.99,SSE,167,0.0,2.0,56,0.00,,,0.00,Wunderground v.1.15,2013-01-23 21:17:00,
2013-01-23 15:20:00,52.3,37.1,29.98,SSE,167,2.0,3.0,56,0.00,,,0.00,Wunderground v.1.15,2013-01-23 21:20:00,
2013-01-23 15:22:00,52.3,37.1,29.98,South,171,0.0,1.0,56,0.00,,,0.00,Wunderground v.1.15,2013-01-23 21:22:00,
2013-01-23 15:25:00,52.3,37.1,29.99,South,171,0.0,1.0,56,0.00,,,0.00,Wunderground v.1.15,2013-01-23 21:25:00,
2013-01-23 15:28:00,52.4,37.2,29.99,South,169,0.0,1.0,56,0.00,,,0.00,Wunderground v.1.15,2013-01-23 21:28:00,
2013-01-23 15:30:00,52.5,37.2,29.99,South,170,0.0,5.0,56,0.00,,,0.00,Wunderground v.1.15,2013-01-23 21:30:00,
2013-01-23 15:31:00,52.5,37.2,29.99,South,170,0.0,5.0,56,0.00,,,0.00,Wunderground v.1.15,2013-01-23 21:31:00,
2013-01-23 15:33:00,52.6,37.8,29.99,South,170,0.0,0.0,57,0.00,,,0.00,Wunderground v.1.15,2013-01-23 21:33:00,
2013-01-23 15:35:00,52.7,37.4,29.98,South,170,0.0,0.0,56,0.00,,,0.00,Wunderground v.1.15,2013-01-23 21:35:00,
2013-01-23 15:36:00,52.7,37.9,29.98,South,170,0.0,0.0,57,0.00,,,0.00,Wunderground v.1.15,2013-01-23 21:36:00,
2013-01-23 15:38:00,52.7,37.4,29.98,South,170,0.0,0.0,56,0.00,,,0.00,Wunderground v.1.15,2013-01-23 21:38:00,
2013-01-23 15:40:00,52.8,38.0,29.98,South,169,0.0,0.0,57,0.00,,,0.00,Wunderground v.1.15,2013-01-23 21:40:00,
2013-01-23 15:41:00,52.8,37.5,29.98,South,169,0.0,0.0,56,0.00,,,0.00,Wunderground v.1.15,2013-01-23 21:41:00,
2013-01-23 15:43:00,52.9,37.6,29.98,South,170,0.0,0.0,56,0.00,,,0.00,Wunderground v.1.15,2013-01-23 21:43:00,
2013-01-23 15:46:00,52.9,37.6,29.98,South,169,0.0,0.0,56,0.00,,,0.00,Wunderground v.1.15,2013-01-23 21:46:00,
2013-01-23 15:48:00,52.9,37.6,29.98,South,170,0.0,0.0,56,0.00,,,0.00,Wunderground v.1.15,2013-01-23 21:48:00,
2013-01-23 15:51:00,52.9,38.1,29.98,South,169,0.0,0.0,57,0.00,,,0.00,Wunderground v.1.15,2013-01-23 21:51:00,
2013-01-23 15:52:00,52.8,37.5,29.98,South,169,0.0,0.0,56,0.00,,,0.00,Wunderground v.1.15,2013-01-23 21:52:00,
2013-01-23 15:53:00,52.8,37.5,29.98,South,170,0.0,0.0,56,0.00,,,0.00,Wunderground v.1.15,2013-01-23 21:53:00,
2013-01-23 15:56:00,52.8,37.5,29.98,South,170,0.0,0.0,56,0.00,,,0.00,Wunderground v.1.15,2013-01-23 21:56:00,
2013-01-23 15:57:00,52.8,37.5,29.98,South,170,0.0,0.0,56,0.00,,,0.00,Wunderground v.1.15,2013-01-23 21:57:00,
2013-01-23 15:58:00,52.8,37.5,29.98,South,169,0.0,0.0,56,0.00,,,0.00,Wunderground v.1.15,2013-01-23 21:58:00,
2013-01-23 16:01:00,52.9,37.6,29.97,South,169,0.0,0.0,56,0.00,,,0.00,Wunderground v.1.15,2013-01-23 22:01:00,
2013-01-23 16:02:00,52.9,37.6,29.98,South,171,1.0,1.0,56,0.00,,,0.00,Wunderground v.1.15,2013-01-23 22:02:00,
2013-01-23 16:03:00,52.9,37.6,29.97,South,169,0.0,3.0,56,0.00,,,0.00,Wunderground v.1.15,2013-01-23 22:03:00,
2013-01-23 16:04:00,52.8,37.5,29.97,South,169,0.0,3.0,56,0.00,,,0.00,Wunderground v.1.15,2013-01-23 22:04:00,
2013-01-23 16:06:00,52.8,38.0,29.97,South,178,0.0,3.0,57,0.00,,,0.00,Wunderground v.1.15,2013-01-23 22:06:00,
2013-01-23 16:07:00,52.8,38.0,29.97,South,190,0.0,3.0,57,0.00,,,0.00,Wunderground v.1.15,2013-01-23 22:07:00,
2013-01-23 16:08:00,52.8,38.0,29.97,South,180,0.0,3.0,57,0.00,,,0.00,Wunderground v.1.15,2013-01-23 22:08:00,
2013-01-23 16:09:00,52.8,38.0,29.97,South,172,0.0,3.0,57,0.00,,,0.00,Wunderground v.1.15,2013-01-23 22:09:00,
2013-01-23 16:12:00,52.6,37.8,29.97,South,176,0.0,1.0,57,0.00,,,0.00,Wunderground v.1.15,2013-01-23 22:12:00,
2013-01-23 16:13:00,52.6,37.8,29.97,South,186,2.0,3.0,57,0.00,,,0.00,Wunderground v.1.15,2013-01-23 22:13:00,
2013-01-23 16:14:00,52.5,37.7,29.97,South,186,0.0,3.0,57,0.00,,,0.00,Wunderground v.1.15,2013-01-23 22:14:00,
2013-01-23 16:17:00,52.4,38.0,29.97,South,186,0.0,3.0,58,0.00,,,0.00,Wunderground v.1.15,2013-01-23 22:17:00,
2013-01-23 16:18:00,52.4,38.0,29.97,South,186,0.0,3.0,58,0.00,,,0.00,Wunderground v.1.15,2013-01-23 22:18:00,
2013-01-23 16:19:00,52.4,38.0,29.97,South,186,0.0,3.0,58,0.00,,,0.00,Wunderground v.1.15,2013-01-23 22:19:00,
2013-01-23 16:20:00,52.3,38.0,29.97,South,186,0.0,3.0,58,0.00,,,0.00,Wunderground v.1.15,2013-01-23 22:20:00,
2013-01-23 16:22:00,52.3,38.0,29.97,South,186,0.0,1.0,58,0.00,,,0.00,Wunderground v.1.15,2013-01-23 22:22:00,
2013-01-23 16:23:00,52.3,38.0,29.97,South,186,0.0,1.0,58,0.00,,,0.00,Wunderground v.1.15,2013-01-23 22:23:00,
2013-01-23 16:24:00,52.3,38.0,29.97,South,186,0.0,1.0,58,0.00,,,0.00,Wunderground v.1.15,2013-01-23 22:24:00,
2013-01-23 16:25:00,52.2,37.9,29.97,South,186,0.0,1.0,58,0.00,,,0.00,Wunderground v.1.15,2013-01-23 22:25:00,
2013-01-23 16:27:00,52.2,37.9,29.97,South,186,0.0,3.0,58,0.00,,,0.00,Wunderground v.1.15,2013-01-23 22:27:00,
2013-01-23 16:29:00,52.3,38.0,29.97,South,186,0.0,3.0,58,0.00,,,0.00,Wunderground v.1.15,2013-01-23 22:29:00,
2013-01-23 16:30:00,52.3,38.0,29.97,South,186,0.0,3.0,58,0.00,,,0.00,Wunderground v.1.15,2013-01-23 22:30:00,
2013-01-23 16:31:00,52.3,38.0,29.97,South,186,0.0,3.0,58,0.00,,,0.00,Wunderground v.1.15,2013-01-23 22:31:00,
2013-01-23 16:32:00,52.3,38.0,29.97,South,186,0.0,0.0,58,0.00,,,0.00,Wunderground v.1.15,2013-01-23 22:32:00,
2013-01-23 16:34:00,52.3,38.0,29.97,South,186,0.0,0.0,58,0.00,,,0.00,Wunderground v.1.15,2013-01-23 22:34:00,
2013-01-23 16:35:00,52.3,38.0,29.97,South,186,0.0,0.0,58,0.00,,,0.00,Wunderground v.1.15,2013-01-23 22:35:00,
2013-01-23 16:36:00,52.3,38.0,29.97,South,186,0.0,0.0,58,0.00,,,0.00,Wunderground v.1.15,2013-01-23 22:36:00,
2013-01-23 16:38:00,52.3,38.0,29.97,South,186,0.0,0.0,58,0.00,,,0.00,Wunderground v.1.15,2013-01-23 22:38:00,
2013-01-23 16:39:00,52.3,38.0,29.97,South,186,0.0,0.0,58,0.00,,,0.00,Wunderground v.1.15,2013-01-23 22:39:00,
2013-01-23 16:40:00,52.3,38.0,29.97,South,186,0.0,0.0,58,0.00,,,0.00,Wunderground v.1.15,2013-01-23 22:40:00,
2013-01-23 16:41:00,52.3,38.4,29.97,South,186,0.0,0.0,59,0.00,,,0.00,Wunderground v.1.15,2013-01-23 22:41:00,
2013-01-23 16:43:00,52.2,38.3,29.97,South,186,0.0,0.0,59,0.00,,,0.00,Wunderground v.1.15,2013-01-23 22:43:00,
2013-01-23 16:45:00,52.2,38.3,29.97,South,186,0.0,0.0,59,0.00,,,0.00,Wunderground v.1.15,2013-01-23 22:45:00,
2013-01-23 16:46:00,52.2,38.3,29.97,South,186,0.0,1.0,59,0.00,,,0.00,Wunderground v.1.15,2013-01-23 22:46:00,
2013-01-23 16:48:00,52.2,38.3,29.97,South,186,0.0,1.0,59,0.00,,,0.00,Wunderground v.1.15,2013-01-23 22:48:00,
2013-01-23 16:50:00,52.2,38.3,29.97,South,186,0.0,1.0,59,0.00,,,0.00,Wunderground v.1.15,2013-01-23 22:50:00,
2013-01-23 16:52:00,52.2,38.3,29.97,South,186,0.0,0.0,59,0.00,,,0.00,Wunderground v.1.15,2013-01-23 22:52:00,
2013-01-23 16:53:00,52.2,38.3,29.97,South,186,0.0,0.0,59,0.00,,,0.00,Wunderground v.1.15,2013-01-23 22:53:00,
2013-01-23 16:55:00,52.1,38.2,29.97,South,186,0.0,0.0,59,0.00,,,0.00,Wunderground v.1.15,2013-01-23 22:55:00,
2013-01-23 16:57:00,52.0,38.1,29.97,South,186,0.0,0.0,59,0.00,,,0.00,Wunderground v.1.15,2013-01-23 22:57:00,
2013-01-23 16:59:00,51.9,38.0,29.97,South,186,0.0,0.0,59,0.00,,,0.00,Wunderground v.1.15,2013-01-23 22:59:00,
2013-01-23 17:00:00,51.9,38.0,29.97,South,186,0.0,0.0,59,0.00,,,0.00,Wunderground v.1.15,2013-01-23 23:00:00,
2013-01-23 17:01:00,51.9,38.0,29.97,South,186,0.0,0.0,59,0.00,,,0.00,Wunderground v.1.15,2013-01-23 23:01:00,
2013-01-23 17:02:00,51.8,37.9,29.97,South,186,0.0,0.0,59,0.00,,,0.00,Wunderground v.1.15,2013-01-23 23:02:00,
2013-01-23 17:04:00,51.7,37.8,29.97,South,186,0.0,0.0,59,0.00,,,0.00,Wunderground v.1.15,2013-01-23 23:04:00,
2013-01-23 17:05:00,51.6,37.7,29.97,South,186,0.0,0.0,59,0.00,,,0.00,Wunderground v.1.15,2013-01-23 23:05:00,
2013-01-23 17:06:00,51.5,38.1,29.97,South,186,0.0,0.0,60,0.00,,,0.00,Wunderground v.1.15,2013-01-23 23:06:00,
2013-01-23 17:08:00,51.4,38.0,29.97,South,186,0.0,0.0,60,0.00,,,0.00,Wunderground v.1.15,2013-01-23 23:08:00,
2013-01-23 17:09:00,51.3,37.9,29.97,South,186,0.0,0.0,60,0.00,,,0.00,Wunderground v.1.15,2013-01-23 23:09:00,
2013-01-23 17:10:00,51.2,37.8,29.97,South,186,0.0,0.0,60,0.00,,,0.00,Wunderground v.1.15,2013-01-23 23:10:00,
2013-01-23 17:11:00,51.1,37.7,29.97,South,186,0.0,0.0,60,0.00,,,0.00,Wunderground v.1.15,2013-01-23 23:11:00,
2013-01-23 17:13:00,50.9,37.9,29.97,South,186,0.0,0.0,61,0.00,,,0.00,Wunderground v.1.15,2013-01-23 23:13:00,
2013-01-23 17:14:00,50.7,37.7,29.96,South,186,0.0,0.0,61,0.00,,,0.00,Wunderground v.1.15,2013-01-23 23:14:00,
2013-01-23 17:16:00,50.5,37.5,29.96,South,186,0.0,0.0,61,0.00,,,0.00,Wunderground v.1.15,2013-01-23 23:16:00,
2013-01-23 17:18:00,50.3,37.4,29.96,South,186,0.0,0.0,61,0.00,,,0.00,Wunderground v.1.15,2013-01-23 23:18:00,
2013-01-23 17:19:00,50.1,37.6,29.96,South,186,0.0,0.0,62,0.00,,,0.00,Wunderground v.1.15,2013-01-23 23:19:00,
2013-01-23 17:21:00,49.9,37.4,29.96,South,186,0.0,0.0,62,0.00,,,0.00,Wunderground v.1.15,2013-01-23 23:21:00,
2013-01-23 17:23:00,49.5,37.4,29.96,South,186,0.0,0.0,63,0.00,,,0.00,Wunderground v.1.15,2013-01-23 23:23:00,
2013-01-23 17:24:00,49.4,37.3,29.96,South,186,0.0,0.0,63,0.00,,,0.00,Wunderground v.1.15,2013-01-23 23:24:00,
2013-01-23 17:26:00,49.2,37.1,29.96,South,186,0.0,0.0,63,0.00,,,0.00,Wunderground v.1.15,2013-01-23 23:26:00,
2013-01-23 17:29:00,48.8,37.2,29.96,South,186,0.0,0.0,64,0.00,,,0.00,Wunderground v.1.15,2013-01-23 23:29:00,
2013-01-23 17:30:00,48.7,37.1,29.96,South,186,0.0,0.0,64,0.00,,,0.00,Wunderground v.1.15,2013-01-23 23:30:00,
2013-01-23 17:31:00,48.5,36.9,29.96,South,186,0.0,0.0,64,0.00,,,0.00,Wunderground v.1.15,2013-01-23 23:31:00,
2013-01-23 17:32:00,48.4,37.2,29.96,South,186,0.0,0.0,65,0.00,,,0.00,Wunderground v.1.15,2013-01-23 23:32:00,
2013-01-23 17:34:00,48.1,36.9,29.96,South,186,0.0,0.0,65,0.00,,,0.00,Wunderground v.1.15,2013-01-23 23:34:00,
2013-01-23 17:35:00,47.9,36.7,29.96,South,186,0.0,0.0,65,0.00,,,0.00,Wunderground v.1.15,2013-01-23 23:35:00,
2013-01-23 17:37:00,47.7,36.9,29.96,South,186,0.0,0.0,66,0.00,,,0.00,Wunderground v.1.15,2013-01-23 23:37:00,
2013-01-23 17:39:00,47.3,36.9,29.96,South,186,0.0,0.0,67,0.00,,,0.00,Wunderground v.1.15,2013-01-23 23:39:00,
2013-01-23 17:40:00,47.1,36.7,29.96,South,186,0.0,0.0,67,0.00,,,0.00,Wunderground v.1.15,2013-01-23 23:40:00,
2013-01-23 17:42:00,46.9,36.5,29.96,South,186,0.0,0.0,67,0.00,,,0.00,Wunderground v.1.15,2013-01-23 23:42:00,
2013-01-23 17:45:00,46.6,36.6,29.96,South,186,0.0,0.0,68,0.00,,,0.00,Wunderground v.1.15,2013-01-23 23:45:00,
2013-01-23 17:47:00,46.4,36.8,29.96,South,186,0.0,0.0,69,0.00,,,0.00,Wunderground v.1.15,2013-01-23 23:47:00,
2013-01-23 17:48:00,46.3,36.7,29.96,South,186,0.0,0.0,69,0.00,,,0.00,Wunderground v.1.15,2013-01-23 23:48:00,
2013-01-23 17:51:00,46.0,36.4,29.96,South,186,0.0,0.0,69,0.00,,,0.00,Wunderground v.1.15,2013-01-23 23:51:00,
2013-01-23 17:52:00,45.8,36.6,29.96,South,186,0.0,0.0,70,0.00,,,0.00,Wunderground v.1.15,2013-01-23 23:52:00,
2013-01-23 17:53:00,45.7,36.5,29.96,South,186,0.0,0.0,70,0.00,,,0.00,Wunderground v.1.15,2013-01-23 23:53:00,
2013-01-23 17:56:00,45.5,36.3,29.96,South,186,0.0,0.0,70,0.00,,,0.00,Wunderground v.1.15,2013-01-23 23:56:00,
2013-01-23 17:58:00,45.3,36.4,29.95,South,186,0.0,0.0,71,0.00,,,0.00,Wunderground v.1.15,2013-01-23 23:58:00,
2013-01-23 17:59:00,45.1,36.3,29.95,South,186,0.0,0.0,71,0.00,,,0.00,Wunderground v.1.15,2013-01-23 23:59:00,
2013-01-23 18:01:00,45.0,36.5,29.95,South,186,0.0,0.0,72,0.00,,,0.00,Wunderground v.1.15,2013-01-24 00:01:00,
2013-01-23 18:03:00,44.7,36.6,29.95,South,186,0.0,0.0,73,0.00,,,0.00,Wunderground v.1.15,2013-01-24 00:03:00,
2013-01-23 18:04:00,44.6,36.5,29.95,South,186,0.0,0.0,73,0.00,,,0.00,Wunderground v.1.15,2013-01-24 00:04:00,
2013-01-23 18:06:00,44.4,36.6,29.95,South,186,0.0,0.0,74,0.00,,,0.00,Wunderground v.1.15,2013-01-24 00:06:00,
2013-01-23 18:07:00,44.4,36.6,29.95,South,186,0.0,0.0,74,0.00,,,0.00,Wunderground v.1.15,2013-01-24 00:07:00,
2013-01-23 18:08:00,44.3,36.5,29.95,South,186,0.0,0.0,74,0.00,,,0.00,Wunderground v.1.15,2013-01-24 00:08:00,
2013-01-23 18:09:00,44.2,36.4,29.95,South,186,0.0,0.0,74,0.00,,,0.00,Wunderground v.1.15,2013-01-24 00:09:00,
2013-01-23 18:11:00,44.0,36.2,29.95,South,186,0.0,0.0,74,0.00,,,0.00,Wunderground v.1.15,2013-01-24 00:11:00,
2013-01-23 18:12:00,43.9,36.1,29.95,South,186,0.0,0.0,74,0.00,,,0.00,Wunderground v.1.15,2013-01-24 00:12:00,
2013-01-23 18:14:00,43.7,36.0,29.95,South,186,0.0,0.0,74,0.00,,,0.00,Wunderground v.1.15,2013-01-24 00:14:00,
2013-01-23 18:17:00,43.5,36.1,29.95,South,186,0.0,0.0,75,0.00,,,0.00,Wunderground v.1.15,2013-01-24 00:17:00,
2013-01-23 18:19:00,43.4,36.3,29.95,South,186,0.0,0.0,76,0.00,,,0.00,Wunderground v.1.15,2013-01-24 00:19:00,
2013-01-23 18:22:00,43.2,36.1,29.95,South,186,0.0,0.0,76,0.00,,,0.00,Wunderground v.1.15,2013-01-24 00:22:00,
2013-01-23 18:25:00,43.0,36.3,29.95,South,186,0.0,0.0,77,0.00,,,0.00,Wunderground v.1.15,2013-01-24 00:25:00,
2013-01-23 18:27:00,42.8,35.8,29.95,South,186,0.0,0.0,76,0.00,,,0.00,Wunderground v.1.15,2013-01-24 00:27:00,
2013-01-23 18:28:00,42.8,35.8,29.95,South,186,0.0,0.0,76,0.00,,,0.00,Wunderground v.1.15,2013-01-24 00:28:00,
2013-01-23 18:30:00,42.7,35.7,29.95,South,186,0.0,0.0,76,0.00,,,0.00,Wunderground v.1.15,2013-01-24 00:30:00,
2013-01-23 18:32:00,42.5,35.5,29.95,South,186,0.0,0.0,76,0.00,,,0.00,Wunderground v.1.15,2013-01-24 00:32:00,
2013-01-23 18:33:00,42.5,35.8,29.95,South,186,0.0,0.0,77,0.00,,,0.00,Wunderground v.1.15,2013-01-24 00:33:00,
2013-01-23 18:35:00,42.4,35.7,29.95,South,186,0.0,0.0,77,0.00,,,0.00,Wunderground v.1.15,2013-01-24 00:35:00,
2013-01-23 18:36:00,42.2,35.8,29.95,South,186,0.0,0.0,78,0.00,,,0.00,Wunderground v.1.15,2013-01-24 00:36:00,
2013-01-23 18:37:00,42.2,35.8,29.95,South,186,0.0,0.0,78,0.00,,,0.00,Wunderground v.1.15,2013-01-24 00:37:00,
2013-01-23 18:39:00,42.1,35.7,29.95,South,186,0.0,0.0,78,0.00,,,0.00,Wunderground v.1.15,2013-01-24 00:39:00,
2013-01-23 18:40:00,42.0,36.0,29.95,South,186,0.0,0.0,79,0.00,,,0.00,Wunderground v.1.15,2013-01-24 00:40:00,
2013-01-23 18:41:00,41.9,35.9,29.95,South,186,0.0,0.0,79,0.00,,,0.00,Wunderground v.1.15,2013-01-24 00:41:00,
2013-01-23 18:43:00,41.8,35.8,29.95,South,186,0.0,0.0,79,0.00,,,0.00,Wunderground v.1.15,2013-01-24 00:43:00,
2013-01-23 18:44:00,41.8,35.8,29.95,South,186,0.0,0.0,79,0.00,,,0.00,Wunderground v.1.15,2013-01-24 00:44:00,
2013-01-23 18:45:00,41.7,35.7,29.95,South,186,0.0,0.0,79,0.00,,,0.00,Wunderground v.1.15,2013-01-24 00:45:00,
2013-01-23 18:47:00,41.6,35.9,29.95,South,186,0.0,0.0,80,0.00,,,0.00,Wunderground v.1.15,2013-01-24 00:47:00,
2013-01-23 18:48:00,41.6,35.9,29.95,South,186,0.0,0.0,80,0.00,,,0.00,Wunderground v.1.15,2013-01-24 00:48:00,
2013-01-23 18:49:00,41.5,35.8,29.95,South,186,0.0,0.0,80,0.00,,,0.00,Wunderground v.1.15,2013-01-24 00:49:00,
2013-01-23 18:51:00,41.4,35.7,29.95,South,186,0.0,0.0,80,0.00,,,0.00,Wunderground v.1.15,2013-01-24 00:51:00,
2013-01-23 18:52:00,41.4,36.0,29.95,South,186,0.0,0.0,81,0.00,,,0.00,Wunderground v.1.15,2013-01-24 00:52:00,
2013-01-23 18:53:00,41.3,35.9,29.95,South,186,0.0,0.0,81,0.00,,,0.00,Wunderground v.1.15,2013-01-24 00:53:00,
2013-01-23 18:54:00,41.3,35.9,29.95,South,186,0.0,0.0,81,0.00,,,0.00,Wunderground v.1.15,2013-01-24 00:54:00,
2013-01-23 18:56:00,41.2,36.1,29.95,South,186,0.0,0.0,82,0.00,,,0.00,Wunderground v.1.15,2013-01-24 00:56:00,
2013-01-23 18:58:00,41.1,36.0,29.95,South,186,0.0,0.0,82,0.00,,,0.00,Wunderground v.1.15,2013-01-24 00:58:00,
2013-01-23 18:59:00,41.1,36.3,29.96,South,186,0.0,0.0,83,0.00,,,0.00,Wunderground v.1.15,2013-01-24 00:59:00,
2013-01-23 19:01:00,41.1,36.6,29.96,South,186,0.0,0.0,84,0.00,,,0.00,Wunderground v.1.15,2013-01-24 01:01:00,
2013-01-23 19:03:00,41.0,36.5,29.96,South,186,0.0,0.0,84,0.00,,,0.00,Wunderground v.1.15,2013-01-24 01:03:00,
2013-01-23 19:04:00,41.0,36.5,29.96,South,186,0.0,0.0,84,0.00,,,0.00,Wunderground v.1.15,2013-01-24 01:04:00,
2013-01-23 19:07:00,41.0,36.8,29.96,South,186,0.0,0.0,85,0.00,,,0.00,Wunderground v.1.15,2013-01-24 01:07:00,
2013-01-23 19:08:00,40.9,36.7,29.96,South,186,0.0,0.0,85,0.00,,,0.00,Wunderground v.1.15,2013-01-24 01:08:00,
2013-01-23 19:09:00,40.9,36.4,29.96,South,186,0.0,0.0,84,0.00,,,0.00,Wunderground v.1.15,2013-01-24 01:09:00,
2013-01-23 19:10:00,40.9,36.4,29.96,South,186,0.0,0.0,84,0.00,,,0.00,Wunderground v.1.15,2013-01-24 01:10:00,
2013-01-23 19:12:00,40.7,36.2,29.96,South,186,0.0,0.0,84,0.00,,,0.00,Wunderground v.1.15,2013-01-24 01:12:00,
2013-01-23 19:14:00,40.6,36.1,29.96,South,186,0.0,0.0,84,0.00,,,0.00,Wunderground v.1.15,2013-01-24 01:14:00,
2013-01-23 19:16:00,40.4,35.6,29.96,South,186,0.0,0.0,83,0.00,,,0.00,Wunderground v.1.15,2013-01-24 01:16:00,
2013-01-23 19:18:00,40.3,35.5,29.96,South,186,0.0,0.0,83,0.00,,,0.00,Wunderground v.1.15,2013-01-24 01:18:00,
2013-01-23 19:19:00,40.2,35.4,29.96,South,186,0.0,0.0,83,0.00,,,0.00,Wunderground v.1.15,2013-01-24 01:19:00,
2013-01-23 19:21:00,40.1,35.4,29.96,South,186,0.0,0.0,83,0.00,,,0.00,Wunderground v.1.15,2013-01-24 01:21:00,
2013-01-23 19:24:00,40.0,35.3,29.96,South,186,0.0,0.0,83,0.00,,,0.00,Wunderground v.1.15,2013-01-24 01:24:00,
2013-01-23 19:25:00,39.9,35.5,29.96,South,186,0.0,0.0,84,0.00,,,0.00,Wunderground v.1.15,2013-01-24 01:25:00,
2013-01-23 19:26:00,39.9,35.5,29.96,South,186,0.0,0.0,84,0.00,,,0.00,Wunderground v.1.15,2013-01-24 01:26:00,
2013-01-23 19:29:00,39.8,35.7,29.96,South,186,0.0,0.0,85,0.00,,,0.00,Wunderground v.1.15,2013-01-24 01:29:00,
2013-01-23 19:30:00,39.8,35.7,29.96,South,186,0.0,0.0,85,0.00,,,0.00,Wunderground v.1.15,2013-01-24 01:30:00,
2013-01-23 19:31:00,39.7,35.6,29.96,South,186,0.0,0.0,85,0.00,,,0.00,Wunderground v.1.15,2013-01-24 01:31:00,
2013-01-23 19:34:00,39.6,35.8,29.96,South,186,0.0,0.0,86,0.00,,,0.00,Wunderground v.1.15,2013-01-24 01:34:00,
2013-01-23 19:35:00,39.7,35.9,29.96,South,186,0.0,0.0,86,0.00,,,0.00,Wunderground v.1.15,2013-01-24 01:35:00,
2013-01-23 19:36:00,39.6,35.8,29.96,South,186,0.0,0.0,86,0.00,,,0.00,Wunderground v.1.15,2013-01-24 01:36:00,
2013-01-23 19:40:00,39.5,36.0,29.96,South,186,0.0,0.0,87,0.00,,,0.00,Wunderground v.1.15,2013-01-24 01:40:00,
2013-01-23 19:41:00,39.4,35.9,29.96,South,186,0.0,0.0,87,0.00,,,0.00,Wunderground v.1.15,2013-01-24 01:41:00,
2013-01-23 19:45:00,39.3,35.8,29.96,South,186,0.0,0.0,87,0.00,,,0.00,Wunderground v.1.15,2013-01-24 01:45:00,
2013-01-23 19:47:00,39.2,35.4,29.96,South,186,0.0,0.0,86,0.00,,,0.00,Wunderground v.1.15,2013-01-24 01:47:00,
2013-01-23 19:50:00,39.1,35.3,29.96,South,186,0.0,0.0,86,0.00,,,0.00,Wunderground v.1.15,2013-01-24 01:50:00,
2013-01-23 19:51:00,39.1,35.3,29.96,South,186,0.0,0.0,86,0.00,,,0.00,Wunderground v.1.15,2013-01-24 01:51:00,
2013-01-23 19:52:00,39.0,35.2,29.96,South,186,0.0,0.0,86,0.00,,,0.00,Wunderground v.1.15,2013-01-24 01:52:00,
2013-01-23 19:55:00,38.9,35.4,29.96,South,186,0.0,0.0,87,0.00,,,0.00,Wunderground v.1.15,2013-01-24 01:55:00,
2013-01-23 19:56:00,38.9,35.4,29.96,South,186,0.0,0.0,87,0.00,,,0.00,Wunderground v.1.15,2013-01-24 01:56:00,
2013-01-23 19:58:00,38.8,35.3,29.96,South,186,0.0,0.0,87,0.00,,,0.00,Wunderground v.1.15,2013-01-24 01:58:00,
2013-01-23 20:00:00,38.7,35.2,29.96,South,186,0.0,0.0,87,0.00,,,0.00,Wunderground v.1.15,2013-01-24 02:00:00,
2013-01-23 20:01:00,38.7,35.2,29.96,South,186,0.0,0.0,87,0.00,,,0.00,Wunderground v.1.15,2013-01-24 02:01:00,
2013-01-23 20:02:00,38.7,35.2,29.96,South,186,0.0,0.0,87,0.00,,,0.00,Wunderground v.1.15,2013-01-24 02:02:00,
2013-01-23 20:04:00,38.6,35.1,29.96,South,186,0.0,0.0,87,0.00,,,0.00,Wunderground v.1.15,2013-01-24 02:04:00,
2013-01-23 20:05:00,38.6,35.1,29.96,South,186,0.0,0.0,87,0.00,,,0.00,Wunderground v.1.15,2013-01-24 02:05:00,
2013-01-23 20:07:00,38.6,35.1,29.96,South,186,0.0,0.0,87,0.00,,,0.00,Wunderground v.1.15,2013-01-24 02:07:00,
2013-01-23 20:09:00,38.5,35.0,29.97,South,186,0.0,0.0,87,0.00,,,0.00,Wunderground v.1.15,2013-01-24 02:09:00,
2013-01-23 20:11:00,38.4,34.9,29.97,South,186,0.0,0.0,87,0.00,,,0.00,Wunderground v.1.15,2013-01-24 02:11:00,
2013-01-23 20:12:00,38.4,34.9,29.97,South,186,0.0,0.0,87,0.00,,,0.00,Wunderground v.1.15,2013-01-24 02:12:00,
2013-01-23 20:14:00,38.4,34.9,29.97,South,186,0.0,0.0,87,0.00,,,0.00,Wunderground v.1.15,2013-01-24 02:14:00,
2013-01-23 20:16:00,38.3,34.8,29.96,South,186,0.0,0.0,87,0.00,,,0.00,Wunderground v.1.15,2013-01-24 02:16:00,
2013-01-23 20:17:00,38.3,34.8,29.97,South,186,0.0,0.0,87,0.00,,,0.00,Wunderground v.1.15,2013-01-24 02:17:00,
2013-01-23 20:19:00,38.2,34.7,29.96,South,186,0.0,0.0,87,0.00,,,0.00,Wunderground v.1.15,2013-01-24 02:19:00,
2013-01-23 20:21:00,38.2,35.0,29.97,South,186,0.0,0.0,88,0.00,,,0.00,Wunderground v.1.15,2013-01-24 02:21:00,
2013-01-23 20:22:00,38.1,34.9,29.96,South,186,0.0,0.0,88,0.00,,,0.00,Wunderground v.1.15,2013-01-24 02:22:00,
2013-01-23 20:23:00,38.1,34.9,29.96,South,186,0.0,0.0,88,0.00,,,0.00,Wunderground v.1.15,2013-01-24 02:23:00,
2013-01-23 20:24:00,38.1,34.9,29.96,South,186,0.0,0.0,88,0.00,,,0.00,Wunderground v.1.15,2013-01-24 02:24:00,
2013-01-23 20:27:00,38.0,34.8,29.97,South,186,0.0,0.0,88,0.00,,,0.00,Wunderground v.1.15,2013-01-24 02:27:00,
2013-01-23 20:28:00,38.0,34.8,29.96,South,186,0.0,0.0,88,0.00,,,0.00,Wunderground v.1.15,2013-01-24 02:28:00,
2013-01-23 20:29:00,38.0,34.8,29.96,South,186,0.0,0.0,88,0.00,,,0.00,Wunderground v.1.15,2013-01-24 02:29:00,
2013-01-23 20:33:00,37.9,34.7,29.96,South,186,0.0,0.0,88,0.00,,,0.00,Wunderground v.1.15,2013-01-24 02:33:00,
2013-01-23 20:35:00,37.8,34.6,29.97,South,186,0.0,0.0,88,0.00,,,0.00,Wunderground v.1.15,2013-01-24 02:35:00,
2013-01-23 20:38:00,37.7,34.8,29.97,South,186,0.0,0.0,89,0.00,,,0.00,Wunderground v.1.15,2013-01-24 02:38:00,
2013-01-23 20:39:00,37.7,34.8,29.97,South,186,0.0,0.0,89,0.00,,,0.00,Wunderground v.1.15,2013-01-24 02:39:00,
2013-01-23 20:40:00,37.7,34.8,29.97,South,186,0.0,0.0,89,0.00,,,0.00,Wunderground v.1.15,2013-01-24 02:40:00,
2013-01-23 20:43:00,37.7,34.8,29.97,South,186,0.0,0.0,89,0.00,,,0.00,Wunderground v.1.15,2013-01-24 02:43:00,
2013-01-23 20:44:00,37.7,34.8,29.97,South,186,0.0,0.0,89,0.00,,,0.00,Wunderground v.1.15,2013-01-24 02:44:00,
2013-01-23 20:45:00,37.7,35.0,29.97,South,186,0.0,0.0,90,0.00,,,0.00,Wunderground v.1.15,2013-01-24 02:45:00,
2013-01-23 20:46:00,37.7,35.0,29.97,South,186,0.0,0.0,90,0.00,,,0.00,Wunderground v.1.15,2013-01-24 02:46:00,
2013-01-23 20:48:00,37.7,35.0,29.97,South,186,0.0,0.0,90,0.00,,,0.00,Wunderground v.1.15,2013-01-24 02:48:00,
2013-01-23 20:50:00,37.8,35.4,29.97,South,186,0.0,0.0,91,0.00,,,0.00,Wunderground v.1.15,2013-01-24 02:50:00,
2013-01-23 20:51:00,37.8,35.4,29.97,South,186,0.0,0.0,91,0.00,,,0.00,Wunderground v.1.15,2013-01-24 02:51:00,
2013-01-23 20:54:00,37.9,35.5,29.97,South,186,0.0,0.0,91,0.00,,,0.00,Wunderground v.1.15,2013-01-24 02:54:00,
2013-01-23 20:55:00,37.9,35.5,29.97,South,186,0.0,0.0,91,0.00,,,0.00,Wunderground v.1.15,2013-01-24 02:55:00,
2013-01-23 20:56:00,37.9,35.5,29.97,South,186,0.0,0.0,91,0.00,,,0.00,Wunderground v.1.15,2013-01-24 02:56:00,
2013-01-23 20:59:00,37.9,35.2,29.97,South,186,0.0,0.0,90,0.00,,,0.00,Wunderground v.1.15,2013-01-24 02:59:00,
2013-01-23 21:00:00,37.9,35.2,29.97,South,186,0.0,0.0,90,0.00,,,0.00,Wunderground v.1.15,2013-01-24 03:00:00,
2013-01-23 21:01:00,37.9,35.2,29.97,South,186,0.0,0.0,90,0.00,,,0.00,Wunderground v.1.15,2013-01-24 03:01:00,
2013-01-23 21:04:00,37.8,35.1,29.97,South,186,0.0,0.0,90,0.00,,,0.00,Wunderground v.1.15,2013-01-24 03:04:00,
2013-01-23 21:06:00,37.8,35.1,29.98,South,186,0.0,0.0,90,0.00,,,0.00,Wunderground v.1.15,2013-01-24 03:06:00,
2013-01-23 21:09:00,37.7,35.0,29.98,South,186,0.0,0.0,90,0.00,,,0.00,Wunderground v.1.15,2013-01-24 03:09:00,
2013-01-23 21:11:00,37.7,35.3,29.98,South,186,0.0,0.0,91,0.00,,,0.00,Wunderground v.1.15,2013-01-24 03:11:00,
2013-01-23 21:12:00,37.7,35.3,29.98,South,186,0.0,0.0,91,0.00,,,0.00,Wunderground v.1.15,2013-01-24 03:12:00,
2013-01-23 21:15:00,37.6,35.2,29.98,South,186,0.0,0.0,91,0.00,,,0.00,Wunderground v.1.15,2013-01-24 03:15:00,
2013-01-23 21:17:00,37.5,35.1,29.98,South,186,0.0,0.0,91,0.00,,,0.00,Wunderground v.1.15,2013-01-24 03:17:00,
2013-01-23 21:20:00,37.4,35.0,29.98,South,186,0.0,0.0,91,0.00,,,0.00,Wunderground v.1.15,2013-01-24 03:20:00,
2013-01-23 21:22:00,37.4,35.0,29.98,South,186,0.0,0.0,91,0.00,,,0.00,Wunderground v.1.15,2013-01-24 03:22:00,
2013-01-23 21:25:00,37.2,34.5,29.98,South,186,0.0,0.0,90,0.00,,,0.00,Wunderground v.1.15,2013-01-24 03:25:00,
2013-01-23 21:27:00,37.2,34.5,29.98,South,186,0.0,0.0,90,0.00,,,0.00,Wunderground v.1.15,2013-01-24 03:27:00,
2013-01-23 21:30:00,37.0,34.6,29.98,South,186,0.0,0.0,91,0.00,,,0.00,Wunderground v.1.15,2013-01-24 03:30:00,
2013-01-23 21:32:00,37.0,34.6,29.98,South,186,0.0,0.0,91,0.00,,,0.00,Wunderground v.1.15,2013-01-24 03:32:00,
2013-01-23 21:33:00,37.0,34.6,29.98,South,186,0.0,0.0,91,0.00,,,0.00,Wunderground v.1.15,2013-01-24 03:33:00,
2013-01-23 21:36:00,36.9,34.5,29.98,South,186,0.0,0.0,91,0.00,,,0.00,Wunderground v.1.15,2013-01-24 03:36:00,
2013-01-23 21:37:00,36.9,34.5,29.98,South,186,0.0,0.0,91,0.00,,,0.00,Wunderground v.1.15,2013-01-24 03:37:00,
2013-01-23 21:38:00,36.9,34.5,29.98,South,186,0.0,0.0,91,0.00,,,0.00,Wunderground v.1.15,2013-01-24 03:38:00,
2013-01-23 21:41:00,36.9,34.5,29.98,South,186,0.0,0.0,91,0.00,,,0.00,Wunderground v.1.15,2013-01-24 03:41:00,
2013-01-23 21:42:00,36.8,34.4,29.98,South,186,0.0,0.0,91,0.00,,,0.00,Wunderground v.1.15,2013-01-24 03:42:00,
2013-01-23 21:43:00,36.8,34.4,29.98,South,186,0.0,0.0,91,0.00,,,0.00,Wunderground v.1.15,2013-01-24 03:43:00,
2013-01-23 21:47:00,36.8,34.4,29.98,South,186,0.0,0.0,91,0.00,,,0.00,Wunderground v.1.15,2013-01-24 03:47:00,
2013-01-23 21:48:00,36.8,34.4,29.98,South,186,0.0,0.0,91,0.00,,,0.00,Wunderground v.1.15,2013-01-24 03:48:00,
2013-01-23 21:52:00,36.8,34.7,29.98,South,186,0.0,0.0,92,0.00,,,0.00,Wunderground v.1.15,2013-01-24 03:52:00,
2013-01-23 21:53:00,36.8,34.7,29.98,South,186,0.0,0.0,92,0.00,,,0.00,Wunderground v.1.15,2013-01-24 03:53:00,
2013-01-23 21:57:00,37.0,34.9,29.98,South,186,0.0,0.0,92,0.00,,,0.00,Wunderground v.1.15,2013-01-24 03:57:00,
2013-01-23 21:58:00,37.0,34.9,29.98,South,186,0.0,0.0,92,0.00,,,0.00,Wunderground v.1.15,2013-01-24 03:58:00,
2013-01-23 22:02:00,37.1,35.0,29.98,South,186,0.0,0.0,92,0.00,,,0.00,Wunderground v.1.15,2013-01-24 04:02:00,
2013-01-23 22:03:00,37.1,35.0,29.98,South,186,0.0,0.0,92,0.00,,,0.00,Wunderground v.1.15,2013-01-24 04:03:00,
2013-01-23 22:04:00,37.1,35.0,29.98,South,186,0.0,0.0,92,0.00,,,0.00,Wunderground v.1.15,2013-01-24 04:04:00,
2013-01-23 22:08:00,37.2,35.1,29.98,South,186,0.0,0.0,92,0.00,,,0.00,Wunderground v.1.15,2013-01-24 04:08:00,
2013-01-23 22:09:00,37.2,35.1,29.98,South,186,0.0,0.0,92,0.00,,,0.00,Wunderground v.1.15,2013-01-24 04:09:00,
2013-01-23 22:13:00,37.4,35.3,29.98,South,186,0.0,0.0,92,0.00,,,0.00,Wunderground v.1.15,2013-01-24 04:13:00,
2013-01-23 22:14:00,37.4,35.3,29.98,South,186,0.0,0.0,92,0.00,,,0.00,Wunderground v.1.15,2013-01-24 04:14:00,
2013-01-23 22:15:00,37.5,35.7,29.98,South,186,0.0,0.0,93,0.00,,,0.00,Wunderground v.1.15,2013-01-24 04:15:00,
2013-01-23 22:18:00,37.6,35.5,29.98,South,186,0.0,0.0,92,0.00,,,0.00,Wunderground v.1.15,2013-01-24 04:18:00,
2013-01-23 22:19:00,37.7,35.6,29.98,South,186,0.0,0.0,92,0.00,,,0.00,Wunderground v.1.15,2013-01-24 04:19:00,
2013-01-23 22:20:00,37.7,35.6,29.98,South,186,0.0,0.0,92,0.00,,,0.00,Wunderground v.1.15,2013-01-24 04:20:00,
2013-01-23 22:23:00,37.8,35.7,29.98,South,186,0.0,0.0,92,0.00,,,0.00,Wunderground v.1.15,2013-01-24 04:23:00,
2013-01-23 22:24:00,37.8,35.7,29.98,South,186,0.0,0.0,92,0.00,,,0.00,Wunderground v.1.15,2013-01-24 04:24:00,
2013-01-23 22:25:00,37.8,35.7,29.98,South,186,0.0,0.0,92,0.00,,,0.00,Wunderground v.1.15,2013-01-24 04:25:00,
2013-01-23 22:28:00,37.9,36.1,29.98,South,186,0.0,0.0,93,0.00,,,0.00,Wunderground v.1.15,2013-01-24 04:28:00,
2013-01-23 22:29:00,37.9,36.1,29.98,South,186,0.0,0.0,93,0.00,,,0.00,Wunderground v.1.15,2013-01-24 04:29:00,
2013-01-23 22:31:00,38.0,36.2,29.98,South,186,0.0,0.0,93,0.00,,,0.00,Wunderground v.1.15,2013-01-24 04:31:00,
2013-01-23 22:34:00,38.0,35.9,29.98,South,186,0.0,0.0,92,0.00,,,0.00,Wunderground v.1.15,2013-01-24 04:34:00,
2013-01-23 22:36:00,38.0,35.9,29.98,South,186,0.0,0.0,92,0.00,,,0.00,Wunderground v.1.15,2013-01-24 04:36:00,
2013-01-23 22:39:00,38.0,35.9,29.99,South,186,0.0,0.0,92,0.00,,,0.00,Wunderground v.1.15,2013-01-24 04:39:00,
2013-01-23 22:41:00,38.1,36.0,29.99,South,186,0.0,0.0,92,0.00,,,0.00,Wunderground v.1.15,2013-01-24 04:41:00,
2013-01-23 22:42:00,38.1,36.0,29.99,South,186,0.0,0.0,92,0.00,,,0.00,Wunderground v.1.15,2013-01-24 04:42:00,
2013-01-23 22:44:00,38.1,36.0,29.98,South,186,0.0,0.0,92,0.00,,,0.00,Wunderground v.1.15,2013-01-24 04:44:00,
2013-01-23 22:45:00,38.1,36.0,29.98,South,186,0.0,0.0,92,0.00,,,0.00,Wunderground v.1.15,2013-01-24 04:45:00,
2013-01-23 22:46:00,38.1,36.0,29.98,South,186,0.0,0.0,92,0.00,,,0.00,Wunderground v.1.15,2013-01-24 04:46:00,
2013-01-23 22:47:00,38.1,36.0,29.98,South,186,0.0,0.0,92,0.00,,,0.00,Wunderground v.1.15,2013-01-24 04:47:00,
2013-01-23 22:49:00,38.2,36.1,29.98,South,186,0.0,0.0,92,0.00,,,0.00,Wunderground v.1.15,2013-01-24 04:49:00,
2013-01-23 22:50:00,38.2,36.1,29.98,South,186,0.0,0.0,92,0.00,,,0.00,Wunderground v.1.15,2013-01-24 04:50:00,
2013-01-23 22:51:00,38.2,36.1,29.98,South,186,0.0,0.0,92,0.00,,,0.00,Wunderground v.1.15,2013-01-24 04:51:00,
2013-01-23 22:53:00,38.2,36.1,29.98,South,186,0.0,0.0,92,0.00,,,0.00,Wunderground v.1.15,2013-01-24 04:53:00,
2013-01-23 22:55:00,38.2,36.1,29.98,South,186,0.0,0.0,92,0.00,,,0.00,Wunderground v.1.15,2013-01-24 04:55:00,
2013-01-23 22:57:00,38.2,36.1,29.98,South,186,0.0,0.0,92,0.00,,,0.00,Wunderground v.1.15,2013-01-24 04:57:00,
2013-01-23 22:58:00,38.2,36.1,29.98,South,186,0.0,0.0,92,0.00,,,0.00,Wunderground v.1.15,2013-01-24 04:58:00,
2013-01-23 23:00:00,38.3,36.2,29.98,South,186,0.0,0.0,92,0.00,,,0.00,Wunderground v.1.15,2013-01-24 05:00:00,
2013-01-23 23:03:00,38.3,36.2,29.98,South,186,0.0,0.0,92,0.00,,,0.00,Wunderground v.1.15,2013-01-24 05:03:00,
2013-01-23 23:06:00,38.4,36.3,29.98,South,186,0.0,0.0,92,0.00,,,0.00,Wunderground v.1.15,2013-01-24 05:06:00,
2013-01-23 23:08:00,38.4,36.3,29.98,South,186,0.0,0.0,92,0.00,,,0.00,Wunderground v.1.15,2013-01-24 05:08:00,
2013-01-23 23:11:00,38.4,36.3,29.98,South,186,0.0,0.0,92,0.00,,,0.00,Wunderground v.1.15,2013-01-24 05:11:00,
2013-01-23 23:13:00,38.4,36.3,29.98,South,186,0.0,0.0,92,0.00,,,0.00,Wunderground v.1.15,2013-01-24 05:13:00,
2013-01-23 23:14:00,38.4,36.3,29.98,South,186,0.0,0.0,92,0.00,,,0.00,Wunderground v.1.15,2013-01-24 05:14:00,
2013-01-23 23:16:00,38.4,36.3,29.98,South,186,0.0,0.0,92,0.00,,,0.00,Wunderground v.1.15,2013-01-24 05:16:00,
2013-01-23 23:18:00,38.4,36.3,29.98,South,186,0.0,0.0,92,0.00,,,0.00,Wunderground v.1.15,2013-01-24 05:18:00,
2013-01-23 23:19:00,38.4,36.3,29.98,South,186,0.0,0.0,92,0.00,,,0.00,Wunderground v.1.15,2013-01-24 05:19:00,
2013-01-23 23:21:00,38.5,36.4,29.98,South,186,0.0,0.0,92,0.00,,,0.00,Wunderground v.1.15,2013-01-24 05:21:00,
2013-01-23 23:22:00,38.4,36.3,29.98,South,186,0.0,0.0,92,0.00,,,0.00,Wunderground v.1.15,2013-01-24 05:22:00,
2013-01-23 23:23:00,38.5,36.4,29.98,South,186,0.0,0.0,92,0.00,,,0.00,Wunderground v.1.15,2013-01-24 05:23:00,
2013-01-23 23:25:00,38.5,36.4,29.98,South,186,0.0,0.0,92,0.00,,,0.00,Wunderground v.1.15,2013-01-24 05:25:00,
2013-01-23 23:27:00,38.6,36.5,29.98,South,186,0.0,0.0,92,0.00,,,0.00,Wunderground v.1.15,2013-01-24 05:27:00,
2013-01-23 23:28:00,38.6,36.5,29.98,South,186,0.0,0.0,92,0.00,,,0.00,Wunderground v.1.15,2013-01-24 05:28:00,
2013-01-23 23:29:00,38.6,36.5,29.98,South,186,0.0,0.0,92,0.00,,,0.00,Wunderground v.1.15,2013-01-24 05:29:00,
2013-01-23 23:30:00,38.6,36.5,29.98,South,186,0.0,0.0,92,0.00,,,0.00,Wunderground v.1.15,2013-01-24 05:30:00,
2013-01-23 23:32:00,38.6,36.5,29.98,South,186,0.0,0.0,92,0.00,,,0.00,Wunderground v.1.15,2013-01-24 05:32:00,
2013-01-23 23:34:00,38.7,36.6,29.98,South,186,0.0,0.0,92,0.00,,,0.00,Wunderground v.1.15,2013-01-24 05:34:00,
2013-01-23 23:35:00,38.7,36.6,29.98,South,186,0.0,0.0,92,0.00,,,0.00,Wunderground v.1.15,2013-01-24 05:35:00,
2013-01-23 23:38:00,38.8,36.7,29.98,South,186,0.0,0.0,92,0.00,,,0.00,Wunderground v.1.15,2013-01-24 05:38:00,
2013-01-23 23:39:00,38.8,36.7,29.98,South,186,0.0,0.0,92,0.00,,,0.00,Wunderground v.1.15,2013-01-24 05:39:00,
2013-01-23 23:40:00,38.8,36.7,29.98,South,186,0.0,0.0,92,0.00,,,0.00,Wunderground v.1.15,2013-01-24 05:40:00,
2013-01-23 23:43:00,38.9,36.8,29.99,South,186,0.0,0.0,92,0.00,,,0.00,Wunderground v.1.15,2013-01-24 05:43:00,
2013-01-23 23:44:00,38.9,36.8,29.99,South,186,0.0,0.0,92,0.00,,,0.00,Wunderground v.1.15,2013-01-24 05:44:00,
2013-01-23 23:45:00,38.9,36.8,29.99,South,186,0.0,0.0,92,0.00,,,0.00,Wunderground v.1.15,2013-01-24 05:45:00,
2013-01-23 23:48:00,38.9,36.8,29.99,South,186,0.0,0.0,92,0.00,,,0.00,Wunderground v.1.15,2013-01-24 05:48:00,
2013-01-23 23:49:00,39.0,36.9,29.99,South,186,0.0,0.0,92,0.00,,,0.00,Wunderground v.1.15,2013-01-24 05:49:00,
2013-01-23 23:50:00,39.0,36.9,29.99,South,186,0.0,0.0,92,0.00,,,0.00,Wunderground v.1.15,2013-01-24 05:50:00,
2013-01-23 23:51:00,39.0,36.9,29.99,South,186,0.0,0.0,92,0.00,,,0.00,Wunderground v.1.15,2013-01-24 05:51:00,
2013-01-23 23:53:00,39.1,37.0,29.99,South,186,0.0,0.0,92,0.00,,,0.00,Wunderground v.1.15,2013-01-24 05:53:00,
2013-01-23 23:55:00,39.1,37.0,29.99,South,186,0.0,0.0,92,0.00,,,0.00,Wunderground v.1.15,2013-01-24 05:55:00,
2013-01-23 23:56:00,39.0,36.9,29.99,South,186,0.0,0.0,92,0.00,,,0.00,Wunderground v.1.15,2013-01-24 05:56:00,
2013-01-23 23:58:00,38.9,36.8,29.99,South,186,0.0,0.0,92,0.00,,,0.00,Wunderground v.1.15,2013-01-24 05:58:00,